EW4266 Weather Reports


Display with metric or nautical units.
time (UTC)temp
F
wind
direction
speed
MPH
gust
MPH
rain 1hr
in
rain 24hr
in
rain mn
in
humidity
%
barometer
mb
20260901161620 72 234 1.0 5.0 0.00 0.02 0.02 72 1016.8
20260901161536 72 242 1.0 5.0 0.00 0.02 0.02 71 1016.8
20260901161404 72 200 2.0 5.0 0.00 0.02 0.02 72 1016.9
20260901161326 72 206 3.0 5.0 0.00 0.02 0.02 71 1016.9
20260901161129 72 237 1.0 4.0 0.00 0.02 0.02 72 1016.9
20260901161049 72 237 1.0 4.0 0.00 0.02 0.02 72 1016.9
20260901160944 72 237 1.0 4.0 0.00 0.02 0.02 73 1016.9
20260901160854 72 236 1.0 4.0 0.00 0.02 0.02 71 1016.9
20260901160816 72 236 1.0 4.0 0.00 0.02 0.02 71 1016.9
20260901160721 72 237 1.0 4.0 0.00 0.02 0.02 71 1016.9
20260901160642 72 246 1.0 4.0 0.00 0.02 0.02 71 1016.9
20260901160516 72 267 1.0 4.0 0.00 0.02 0.02 70 1016.9
20260901160430 72 267 2.0 4.0 0.00 0.02 0.02 69 1016.9
20260901160259 73 273 1.0 4.0 0.00 0.02 0.02 70 1016.8
20260901160220 73 273 1.0 4.0 0.00 0.02 0.02 70 1016.8
20260901160042 73 307 2.0 4.0 0.00 0.02 0.02 71 1016.8
20260901155943 73 163 2.0 4.0 0.00 0.02 0.02 70 1016.8
20260901155827 73 206 2.0 4.0 0.00 0.02 0.02 70 1016.9
20260901155747 73 225 2.0 4.0 0.00 0.02 0.02 70 1016.8
20260901155709 73 223 1.0 4.0 0.00 0.02 0.02 70 1016.9
20260901155552 73 223 1.0 4.0 0.00 0.02 0.02 69 1016.8
20260901155515 73 223 2.0 4.0 0.00 0.02 0.02 69 1016.8
20260901155349 73 252 2.0 4.0 0.00 0.02 0.02 70 1016.8
20260901155242 73 242 1.0 4.0 0.00 0.02 0.02 70 1016.8
20260901155112 73 92 0.0 3.0 0.00 0.02 0.02 74 1016.7
20260901155034 73 92 1.0 3.0 0.00 0.02 0.02 71 1016.7
20260901154836 72 61 1.0 4.0 0.00 0.02 0.02 70 1016.8
20260901154757 72 55 0.0 4.0 0.00 0.02 0.02 70 1016.8
20260901154638 72 355 1.0 4.0 0.00 0.02 0.02 71 1016.8
20260901154601 72 355 1.0 4.0 0.00 0.02 0.02 70 1016.7
20260901154340 72 355 2.0 4.0 0.00 0.02 0.02 71 1016.8
20260901154244 72 355 2.0 4.0 0.00 0.02 0.02 73 1016.8
20260901154128 72 336 3.0 4.0 0.00 0.02 0.02 73 1016.8
20260901154049 72 338 3.0 4.0 0.00 0.02 0.02 73 1016.9
20260901153954 72 355 1.0 3.0 0.00 0.02 0.02 72 1016.9
20260901153904 72 90 1.0 3.0 0.00 0.02 0.02 71 1016.9
20260901153712 72 106 1.0 3.0 0.00 0.02 0.02 72 1016.9
20260901153628 72 106 1.0 3.0 0.00 0.02 0.02 72 1016.9
20260901153437 72 106 1.0 3.0 0.00 0.02 0.02 70 1016.9
20260901153331 72 106 2.0 3.0 0.00 0.02 0.02 70 1016.9
20260901153251 72 106 2.0 3.0 0.00 0.02 0.02 70 1016.9
20260901153137 72 134 1.0 3.0 0.00 0.02 0.02 72 1016.9
20260901153058 72 144 2.0 3.0 0.00 0.02 0.02 71 1017.0
20260901153001 72 150 2.0 3.0 0.00 0.02 0.02 72 1016.9
20260901152922 71 155 2.0 4.0 0.00 0.02 0.02 73 1016.9
20260901152724 71 205 0.0 0.0 0.00 0.02 0.02 71 1016.8
20260901152625 71 205 0.0 0.0 0.00 0.02 0.02 71 1016.8
20260901152528 71 205 0.0 0.0 0.00 0.02 0.02 71 1016.8
20260901152429 71 205 0.0 0.0 0.00 0.02 0.02 70 1016.8
20260901152351 71 205 0.0 0.0 0.00 0.02 0.02 70 1016.9
20260901152258 71 205 0.0 0.0 0.00 0.02 0.02 71 1016.8
20260901152140 71 205 0.0 0.0 0.00 0.02 0.02 70 1016.9
20260901152042 71 202 0.0 0.0 0.00 0.02 0.02 73 1016.9
20260901151944 71 202 0.0 0.0 0.00 0.02 0.02 74 1016.9
20260901151825 71 350 0.0 0.0 0.00 0.02 0.02 74 1017.0
20260901151746 71 350 0.0 0.0 0.00 0.02 0.02 74 1017.0
20260901151616 70 55 0.0 0.0 0.00 0.02 0.02 75 1017.1
20260901151530 70 292 0.0 0.0 0.00 0.02 0.02 75 1017.1
20260901151340 70 255 0.0 0.0 0.00 0.02 0.02 74 1017.0
20260901151238 70 190 0.0 4.0 0.00 0.02 0.02 75 1017.0
20260901151123 70 188 0.0 4.0 0.00 0.02 0.02 76 1016.9
20260901151025 70 165 0.0 4.0 0.00 0.02 0.02 75 1016.8
20260901150947 70 165 0.0 5.0 0.00 0.02 0.02 75 1016.7
20260901150849 70 169 0.0 5.0 0.00 0.02 0.02 77 1016.7
20260901150748 70 169 0.0 5.0 0.00 0.02 0.02 76 1016.7
20260901150709 70 165 0.0 5.0 0.00 0.02 0.02 78 1016.6
20260901150612 70 171 0.0 5.0 0.00 0.02 0.02 78 1016.6
20260901150533 70 143 1.0 5.0 0.00 0.02 0.02 77 1016.6
20260901150403 70 195 2.0 5.0 0.00 0.02 0.02 77 1016.8
20260901150257 70 194 3.0 5.0 0.00 0.02 0.02 77 1016.8
20260901150130 70 192 3.0 6.0 0.00 0.02 0.02 78 1016.9
20260901150032 70 189 3.0 6.0 0.00 0.02 0.02 77 1016.9
20260901145834 70 167 2.0 4.0 0.00 0.02 0.02 79 1016.8
20260901145755 70 134 2.0 4.0 0.00 0.02 0.02 79 1016.9
20260901145637 70 185 1.0 4.0 0.00 0.02 0.02 78 1016.9
20260901145559 70 175 0.0 4.0 0.00 0.02 0.02 78 1016.9
20260901145408 70 175 2.0 4.0 0.00 0.02 0.02 77 1016.9
20260901145323 70 175 2.0 4.0 0.00 0.02 0.02 78 1016.9
20260901145134 70 165 2.0 3.0 0.00 0.02 0.02 79 1016.8
20260901145050 70 192 1.0 3.0 0.00 0.02 0.02 79 1016.8
20260901144923 69 119 2.0 3.0 0.00 0.02 0.02 79 1016.7
20260901144823 69 131 1.0 3.0 0.00 0.02 0.02 80 1016.7
20260901144704 69 134 0.0 0.0 0.00 0.02 0.02 80 1016.7
20260901144626 69 138 0.0 0.0 0.00 0.02 0.02 79 1016.7
20260901144428 69 150 0.0 1.0 0.00 0.02 0.02 78 1016.8
20260901144330 69 143 0.0 3.0 0.00 0.02 0.02 79 1016.8
20260901144224 69 170 0.0 3.0 0.00 0.02 0.02 79 1016.8
20260901144144 69 170 0.0 3.0 0.00 0.02 0.02 80 1016.8
20260901144107 69 165 0.0 3.0 0.00 0.02 0.02 80 1016.9
20260901143948 69 140 0.0 3.0 0.00 0.02 0.02 79 1016.9
20260901143913 69 140 0.0 3.0 0.00 0.02 0.02 80 1016.8
20260901143650 69 140 1.0 3.0 0.00 0.02 0.02 80 1016.8
20260901143544 69 140 2.0 3.0 0.00 0.02 0.02 81 1016.9
20260901143413 69 143 2.0 3.0 0.00 0.02 0.02 82 1016.9
20260901143336 69 153 2.0 4.0 0.00 0.02 0.02 80 1016.9
20260901143137 69 164 2.0 4.0 0.00 0.02 0.02 80 1016.9
20260901143058 69 163 2.0 3.0 0.00 0.02 0.02 80 1016.9
20260901142923 69 153 1.0 3.0 0.00 0.02 0.02 81 1017.0
20260901142838 69 180 1.0 3.0 0.00 0.02 0.02 82 1017.0
20260901142707 68 155 1.0 3.0 0.00 0.02 0.02 83 1017.0
20260901142633 68 148 0.0 3.0 0.00 0.02 0.02 83 1017.0
20260901142503 68 148 0.0 3.0 0.00 0.02 0.02 82 1017.0
20260901142336 68 148 0.0 3.0 0.00 0.02 0.02 81 1017.1
20260901142259 68 148 1.0 3.0 0.00 0.02 0.02 81 1017.0
20260901142201 68 148 1.0 3.0 0.00 0.02 0.02 81 1017.1
20260901142041 68 148 2.0 3.0 0.00 0.02 0.02 82 1017.0
20260901141945 68 130 2.0 3.0 0.00 0.02 0.02 83 1017.0
20260901141905 68 132 2.0 3.0 0.00 0.02 0.02 81 1017.0
20260901141736 68 142 1.0 3.0 0.00 0.02 0.02 85 1017.0
20260901141630 67 184 1.0 3.0 0.00 0.02 0.02 83 1017.0
20260901141459 67 259 2.0 3.0 0.00 0.02 0.02 84 1017.0
20260901141425 67 257 2.0 3.0 0.00 0.02 0.02 84 1017.0
20260901141226 67 319 0.0 1.0 0.00 0.02 0.02 84 1017.1
20260901141146 67 319 0.0 1.0 0.00 0.02 0.02 86 1017.1
20260901141031 67 329 0.0 1.0 0.00 0.02 0.02 86 1017.1
20260901140953 66 343 0.0 1.0 0.00 0.02 0.02 87 1017.1
20260901140812 66 328 0.0 1.0 0.00 0.02 0.02 88 1017.0
20260901140726 66 292 0.0 1.0 0.00 0.02 0.02 91 1017.0
20260901140538 65 15 0.0 0.0 0.00 0.02 0.02 90 1017.0
20260901140451 65 333 0.0 0.0 0.00 0.02 0.02 90 1017.0
20260901140321 65 317 0.0 0.0 0.00 0.02 0.02 89 1017.0
20260901140246 65 329 0.0 0.0 0.00 0.02 0.02 89 1017.0
20260901140108 65 338 0.0 0.0 0.00 0.02 0.02 90 1017.0
20260901140031 65 325 0.0 0.0 0.00 0.02 0.02 90 1017.0
20260901135859 65 336 0.0 0.0 0.00 0.02 0.02 90 1016.8
20260901135821 65 330 0.0 0.0 0.00 0.02 0.02 90 1016.8
20260901135736 64 332 0.0 0.0 0.00 0.02 0.02 90 1016.8
20260901135604 64 335 0.0 0.0 0.00 0.02 0.02 89 1016.7
20260901135527 64 282 0.0 0.0 0.00 0.02 0.02 89 1016.7
20260901135328 64 282 0.0 1.0 0.00 0.02 0.02 89 1016.7
20260901135250 64 282 0.0 1.0 0.00 0.02 0.02 90 1016.6
20260901135132 64 282 0.0 1.0 0.00 0.02 0.02 90 1016.6
20260901135059 64 282 0.0 1.0 0.00 0.02 0.02 91 1016.6
20260901134840 64 282 0.0 2.0 0.00 0.02 0.02 89 1016.6
20260901134802 64 282 0.0 2.0 0.00 0.02 0.02 89 1016.6
20260901134704 64 323 0.0 2.0 0.00 0.02 0.02 90 1016.6
20260901134627 64 342 0.0 3.0 0.00 0.02 0.02 90 1016.6
20260901134428 64 347 0.0 4.0 0.00 0.02 0.02 91 1016.7
20260901134330 64 347 0.0 4.0 0.00 0.02 0.02 91 1016.8
20260901134233 64 347 0.0 4.0 0.00 0.02 0.02 90 1016.8
20260901134133 64 347 0.0 4.0 0.00 0.02 0.02 90 1016.9
20260901134059 64 347 0.0 4.0 0.00 0.02 0.02 88 1016.9
20260901133942 64 347 1.0 4.0 0.00 0.02 0.02 90 1016.9
20260901133842 63 347 1.0 4.0 0.00 0.02 0.02 91 1016.9
20260901133755 63 345 3.0 4.0 0.00 0.02 0.02 91 1017.0
20260901133716 63 344 3.0 4.0 0.00 0.02 0.02 92 1017.0
20260901133454 63 331 3.0 4.0 0.00 0.02 0.02 92 1017.1
20260901133420 63 339 2.0 4.0 0.00 0.02 0.02 92 1017.1
20260901133228 63 321 2.0 3.0 0.00 0.02 0.02 91 1017.1
20260901133143 63 321 2.0 3.0 0.00 0.02 0.02 90 1017.1
20260901133013 63 355 1.0 2.0 0.00 0.02 0.02 92 1017.2
20260901132936 63 355 1.0 2.0 0.00 0.02 0.02 92 1017.2
20260901132723 63 187 0.0 2.0 0.00 0.02 0.02 91 1017.2
20260901132645 63 187 0.0 2.0 0.00 0.02 0.02 91 1017.2
20260901132549 63 187 0.0 2.0 0.00 0.02 0.02 91 1017.2
20260901132510 63 187 0.0 3.0 0.00 0.02 0.02 91 1017.2
20260901132340 62 187 0.0 3.0 0.00 0.02 0.02 92 1017.2
20260901132233 62 187 1.0 3.0 0.00 0.02 0.02 92 1017.2
20260901132042 62 187 1.0 3.0 0.00 0.02 0.02 92 1017.1
20260901131936 62 187 1.0 3.0 0.00 0.02 0.02 92 1017.1
20260901131824 62 187 1.0 3.0 0.00 0.02 0.02 92 1017.1
20260901131745 62 187 2.0 3.0 0.00 0.02 0.02 92 1017.2
20260901131706 62 187 2.0 3.0 0.00 0.02 0.02 92 1017.2
20260901131609 62 200 2.0 3.0 0.00 0.02 0.02 92 1017.2
20260901131531 62 200 2.0 3.0 0.00 0.02 0.02 92 1017.2
20260901131334 62 194 1.0 3.0 0.00 0.02 0.02 92 1017.2
20260901131236 62 194 1.0 3.0 0.00 0.02 0.02 92 1017.2
20260901131137 62 194 1.0 3.0 0.00 0.02 0.02 92 1017.2
20260901131058 62 194 1.0 3.0 0.00 0.02 0.02 92 1017.2
20260901131019 62 194 0.0 3.0 0.00 0.02 0.02 92 1017.2
20260901130919 62 220 0.0 1.0 0.00 0.02 0.02 92 1017.3
20260901130838 62 274 0.0 1.0 0.00 0.02 0.02 92 1017.3
20260901130627 62 274 0.0 2.0 0.00 0.02 0.02 94 1017.4
20260901130543 62 274 0.0 2.0 0.00 0.02 0.02 94 1017.5
20260901130413 62 274 0.0 2.0 0.00 0.02 0.02 94 1017.5
20260901130335 62 274 0.0 2.0 0.00 0.02 0.02 94 1017.5
20260901130140 62 274 0.0 3.0 0.00 0.02 0.02 94 1017.5
20260901130100 62 274 0.0 3.0 0.00 0.02 0.02 94 1017.5
20260901130003 62 274 0.0 3.0 0.00 0.02 0.02 94 1017.5
20260901125925 62 274 0.0 3.0 0.00 0.02 0.02 94 1017.5
20260901125745 62 274 0.0 4.0 0.00 0.02 0.02 95 1017.5
20260901125645 62 179 0.0 4.0 0.00 0.02 0.02 95 1017.4
20260901125552 62 179 1.0 4.0 0.00 0.02 0.02 95 1017.4
20260901125515 62 179 1.0 4.0 0.00 0.02 0.02 95 1017.3
20260901125345 61 179 2.0 4.0 0.00 0.02 0.02 94 1017.3
20260901125301 61 179 2.0 4.0 0.00 0.02 0.02 94 1017.3
20260901125129 61 188 2.0 4.0 0.00 0.02 0.02 94 1017.2
20260901125029 61 199 2.0 4.0 0.00 0.02 0.02 94 1017.2
20260901124853 61 199 2.0 5.0 0.00 0.02 0.02 94 1017.3
20260901124815 61 211 2.0 5.0 0.00 0.02 0.02 94 1017.3
20260901124627 61 321 1.0 5.0 0.00 0.02 0.02 93 1017.3
20260901124541 61 321 1.0 5.0 0.00 0.02 0.02 93 1017.3
20260901124411 61 338 1.0 5.0 0.00 0.02 0.02 94 1017.4
20260901124331 61 338 1.0 5.0 0.00 0.02 0.02 94 1017.4
20260901124138 61 345 3.0 5.0 0.00 0.02 0.02 94 1017.3
20260901124058 61 360 3.0 5.0 0.00 0.02 0.02 94 1017.3
20260901124003 61 333 2.0 4.0 0.00 0.02 0.02 95 1017.3
20260901123924 61 340 2.0 3.0 0.00 0.02 0.02 95 1017.3
20260901123753 61 41 1.0 3.0 0.00 0.02 0.02 95 1017.2
20260901123647 61 117 0.0 0.0 0.00 0.02 0.02 95 1017.2
20260901123437 61 155 0.0 0.0 0.00 0.02 0.02 95 1017.2
20260901123351 61 155 0.0 0.0 0.00 0.02 0.02 95 1017.2
20260901123221 61 155 0.0 0.0 0.00 0.02 0.02 95 1017.3
20260901123142 61 155 0.0 0.0 0.00 0.02 0.02 95 1017.3
20260901123012 61 167 0.0 0.0 0.00 0.02 0.02 95 1017.4
20260901122932 61 167 0.0 0.0 0.00 0.02 0.02 95 1017.4
20260901122740 61 167 0.0 0.0 0.00 0.02 0.02 95 1017.5
20260901122644 61 167 0.0 0.0 0.00 0.02 0.02 95 1017.6
20260901122545 61 167 0.0 0.0 0.00 0.02 0.02 95 1017.6
20260901122326 61 167 0.0 0.0 0.00 0.02 0.02 95 1017.7
20260901122228 61 167 0.0 0.0 0.00 0.02 0.02 95 1017.8
20260901122132 61 167 0.0 0.0 0.00 0.02 0.02 95 1017.9
20260901122032 61 167 0.0 0.0 0.00 0.02 0.02 95 1017.9
20260901121947 61 167 0.0 0.0 0.00 0.02 0.02 95 1017.9
20260901121901 61 167 0.0 0.0 0.00 0.02 0.02 95 1017.9
20260901121821 61 167 0.0 0.0 0.00 0.02 0.02 95 1017.9
20260901121644 61 167 0.0 0.0 0.00 0.02 0.02 95 1017.9
20260901121543 61 167 0.0 0.0 0.00 0.02 0.02 95 1017.9
20260901121427 61 167 0.0 0.0 0.00 0.02 0.02 95 1017.9
20260901121348 61 167 0.0 0.0 0.00 0.02 0.02 95 1017.9
20260901121311 61 167 0.0 0.0 0.00 0.02 0.02 95 1017.8
20260901121213 61 167 0.0 0.0 0.00 0.02 0.02 95 1017.8
20260901121136 61 167 0.0 0.0 0.00 0.02 0.02 95 1017.8
20260901121005 61 167 0.0 0.0 0.00 0.02 0.02 95 1017.8
20260901120919 61 167 0.0 0.0 0.00 0.02 0.02 95 1017.8
20260901120732 61 167 0.0 0.0 0.00 0.02 0.02 95 1017.8
20260901120646 61 167 0.0 0.0 0.00 0.02 0.02 95 1017.9
20260901120514 61 167 0.0 0.0 0.00 0.02 0.02 95 1017.9
20260901120416 61 167 0.0 0.0 0.00 0.02 0.02 95 1017.8
20260901120319 61 167 0.0 0.0 0.00 0.02 0.02 95 1017.9
20260901120241 61 167 0.0 0.0 0.00 0.02 0.02 95 1017.8
20260901120048 61 167 0.0 0.0 0.00 0.02 0.02 95 1017.7
20260901115948 61 167 0.0 0.0 0.00 0.02 0.02 95 1017.8
20260901115830 61 167 0.0 0.0 0.00 0.02 0.02 95 1017.7
20260901115751 61 167 0.0 0.0 0.00 0.02 0.02 95 1017.7
20260901115711 61 167 0.0 0.0 0.00 0.02 0.02 95 1017.8
20260901115615 61 167 0.0 0.0 0.00 0.02 0.02 95 1017.7
20260901115540 61 167 0.0 0.0 0.00 0.02 0.02 95 1017.7
20260901115408 61 167 0.0 0.0 0.00 0.02 0.02 95 1017.7
20260901115324 61 167 0.0 0.0 0.00 0.02 0.02 95 1017.7
20260901115152 61 167 0.0 0.0 0.00 0.02 0.02 95 1017.8
20260901115114 61 167 0.0 0.0 0.00 0.02 0.02 95 1017.7
20260901114946 60 167 0.0 0.0 0.00 0.02 0.02 95 1017.7
20260901114840 60 167 0.0 0.0 0.00 0.02 0.02 95 1017.7
20260901114802 60 167 0.0 0.0 0.00 0.02 0.02 95 1017.7
20260901114705 60 167 0.0 0.0 0.00 0.02 0.02 95 1017.7
20260901114628 60 167 0.0 0.0 0.00 0.02 0.02 95 1017.7
20260901114430 60 167 0.0 0.0 0.00 0.02 0.02 95 1017.6
20260901114335 60 167 0.0 0.0 0.00 0.02 0.02 95 1017.6
20260901114238 60 167 0.0 0.0 0.00 0.02 0.02 95 1017.6
20260901114138 60 167 0.0 0.0 0.00 0.02 0.02 95 1017.6
20260901114008 60 167 0.0 0.0 0.00 0.02 0.02 95 1017.5
20260901113923 60 167 0.0 0.0 0.00 0.02 0.02 95 1017.5
20260901113733 60 167 0.0 0.0 0.00 0.02 0.02 95 1017.5
20260901113650 60 167 0.0 0.0 0.00 0.02 0.02 95 1017.5
20260901113518 60 167 0.0 0.0 0.00 0.02 0.02 95 1017.5
20260901113440 60 167 0.0 0.0 0.00 0.02 0.02 95 1017.4
20260901113249 60 167 0.0 0.0 0.00 0.02 0.02 95 1017.4
20260901113126 60 167 0.0 0.0 0.00 0.02 0.02 95 1017.4
20260901113047 60 167 0.0 0.0 0.00 0.02 0.02 95 1017.4
20260901112949 60 167 0.0 0.0 0.01 0.02 0.02 95 1017.4
20260901112911 60 167 0.0 0.0 0.01 0.02 0.02 95 1017.4
20260901112719 60 167 0.0 0.0 0.01 0.02 0.02 95 1017.4
20260901112632 60 167 0.0 0.0 0.01 0.02 0.02 95 1017.4
20260901112411 60 167 0.0 0.0 0.01 0.02 0.02 94 1017.4
20260901112334 60 167 0.0 0.0 0.01 0.02 0.02 94 1017.4
20260901112137 60 167 0.0 0.0 0.01 0.02 0.02 94 1017.4
20260901112058 60 167 0.0 0.0 0.01 0.02 0.02 94 1017.4
20260901112002 60 167 0.0 0.0 0.01 0.02 0.02 94 1017.3
20260901111923 60 167 0.0 0.0 0.01 0.02 0.02 94 1017.3
20260901111737 60 167 0.0 0.0 0.01 0.02 0.02 94 1017.2
20260901111630 60 167 0.0 0.0 0.01 0.02 0.02 94 1017.3
20260901111551 60 167 0.0 0.0 0.01 0.02 0.02 94 1017.3
20260901111435 60 167 0.0 0.0 0.01 0.02 0.02 94 1017.2
20260901111358 60 167 0.0 0.0 0.02 0.02 0.02 94 1017.2
20260901111140 60 167 0.0 0.0 0.02 0.02 0.02 94 1017.2
20260901111100 60 167 0.0 0.0 0.02 0.02 0.02 94 1017.2
20260901111003 60 167 0.0 0.0 0.02 0.02 0.02 95 1017.3
20260901110925 60 167 0.0 0.0 0.02 0.02 0.02 95 1017.3
20260901110733 60 246 0.0 0.0 0.02 0.02 0.02 95 1017.3
20260901110633 60 246 0.0 0.0 0.02 0.02 0.02 95 1017.3
20260901110536 60 246 0.0 0.0 0.02 0.02 0.02 95 1017.2
20260901110436 60 246 0.0 0.0 0.02 0.02 0.02 95 1017.2
20260901110305 60 246 0.0 0.0 0.02 0.02 0.02 95 1017.2
20260901110230 60 246 0.0 0.0 0.02 0.02 0.02 95 1017.2
20260901110100 60 246 0.0 0.0 0.02 0.02 0.02 95 1017.2
20260901110023 60 246 0.0 0.0 0.02 0.02 0.02 95 1017.2
20260901105826 60 246 0.0 0.0 0.02 0.03 0.02 95 1017.2
20260901105731 60 246 0.0 0.0 0.02 0.03 0.02 95 1017.2
20260901105634 60 246 0.0 0.0 0.02 0.03 0.02 95 1017.2
20260901105555 60 246 0.0 0.0 0.02 0.03 0.02 95 1017.2
20260901105517 60 246 0.0 0.0 0.02 0.03 0.02 95 1017.3
20260901105421 60 284 0.0 0.0 0.02 0.03 0.02 95 1017.3
20260901105342 60 284 0.0 0.0 0.02 0.03 0.02 95 1017.3
20260901105211 60 284 0.0 0.0 0.02 0.03 0.02 95 1017.3
20260901105128 60 284 0.0 0.0 0.02 0.03 0.02 95 1017.3
20260901104957 60 284 0.0 0.0 0.02 0.03 0.02 95 1017.3
20260901104919 60 284 0.0 0.0 0.02 0.03 0.02 95 1017.3
20260901104751 60 284 0.0 0.0 0.02 0.03 0.02 95 1017.3
20260901104715 60 284 0.0 0.0 0.02 0.03 0.02 95 1017.3
20260901104530 60 284 0.0 0.0 0.02 0.03 0.02 95 1017.4
20260901104446 60 284 0.0 0.0 0.02 0.03 0.02 95 1017.4
20260901104315 60 284 0.0 0.0 0.02 0.03 0.02 95 1017.4
20260901104225 60 284 0.0 0.0 0.02 0.03 0.02 95 1017.3
20260901104109 60 284 0.0 0.0 0.02 0.03 0.02 95 1017.3
20260901104030 60 284 0.0 0.0 0.02 0.03 0.02 95 1017.3
20260901103818 60 284 0.0 0.0 0.02 0.03 0.02 95 1017.3
20260901103733 60 284 0.0 0.0 0.02 0.03 0.02 95 1017.3
20260901103602 60 284 0.0 0.0 0.02 0.03 0.02 95 1017.2
20260901103525 60 284 0.0 0.0 0.02 0.03 0.02 95 1017.2
20260901103328 60 284 0.0 0.0 0.02 0.03 0.02 95 1017.2
20260901103232 60 284 0.0 0.0 0.02 0.03 0.02 95 1017.1
20260901103135 60 284 0.0 0.0 0.02 0.03 0.02 95 1017.1
20260901103055 60 284 0.0 0.0 0.02 0.03 0.02 95 1017.1
20260901103016 60 284 0.0 0.0 0.01 0.02 0.01 95 1017.1
20260901102919 60 284 0.0 0.0 0.01 0.02 0.01 95 1017.1
20260901102821 60 284 0.0 0.0 0.01 0.02 0.01 95 1017.1
20260901102638 60 284 0.0 0.0 0.01 0.02 0.01 95 1017.1
20260901102532 60 284 0.0 0.0 0.01 0.02 0.01 95 1017.1
20260901102343 60 284 0.0 0.0 0.01 0.02 0.01 95 1017.0
20260901102238 60 284 0.0 0.0 0.01 0.02 0.01 95 1017.0
20260901102125 60 284 0.0 0.0 0.01 0.02 0.01 95 1017.0
20260901102046 60 284 0.0 0.0 0.01 0.02 0.01 95 1016.9
20260901102008 60 284 0.0 0.0 0.01 0.02 0.01 95 1016.9
20260901101911 60 284 0.0 0.0 0.01 0.02 0.01 95 1016.9
20260901101833 60 284 0.0 0.0 0.01 0.02 0.01 95 1016.9
20260901101637 60 284 0.0 0.0 0.01 0.02 0.01 95 1016.9
20260901101538 60 284 0.0 0.0 0.01 0.02 0.01 95 1017.0
20260901101423 60 284 0.0 0.0 0.00 0.01 0.00 95 1016.9
20260901101344 60 284 0.0 0.0 0.00 0.01 0.00 95 1017.0
20260901101306 60 284 0.0 0.0 0.00 0.01 0.00 95 1016.9
20260901101200 60 284 0.0 0.0 0.00 0.01 0.00 95 1016.9
20260901101101 60 284 0.0 0.0 0.00 0.01 0.00 95 1016.9
20260901100929 60 284 0.0 0.0 0.00 0.01 0.00 95 1017.0
20260901100825 60 284 0.0 0.0 0.00 0.01 0.00 95 1017.0
20260901100635 60 284 0.0 0.0 0.00 0.01 0.00 95 1017.0
20260901100551 60 284 0.0 0.0 0.00 0.01 0.00 95 1017.0
20260901100420 60 284 0.0 0.0 0.00 0.01 0.00 95 1017.1
20260901100321 60 284 0.0 0.0 0.00 0.01 0.00 95 1017.1
20260901100124 60 284 0.0 0.0 0.00 0.01 0.00 95 1017.1
20260901100046 60 284 0.0 0.0 0.00 0.01 0.00 95 1017.1
20260901095949 60 284 0.0 0.0 0.00 0.01 0.00 95 1017.1
20260901095833 60 284 0.0 0.0 0.00 0.01 0.00 95 1017.1
20260901095754 60 284 0.0 0.0 0.00 0.01 0.00 95 1017.0
20260901095659 60 284 0.0 0.0 0.00 0.01 0.00 95 1017.1
20260901095621 60 284 0.0 0.0 0.00 0.01 0.00 95 1017.1
20260901095425 60 284 0.0 0.0 0.00 0.01 0.00 95 1017.1
20260901095326 60 284 0.0 0.0 0.00 0.01 0.00 95 1017.1
20260901095230 60 284 0.0 0.0 0.00 0.01 0.00 95 1017.0
20260901095152 60 255 0.0 0.0 0.00 0.01 0.00 95 1017.0
20260901095021 60 206 0.0 0.0 0.00 0.01 0.00 95 1017.0
20260901094915 60 206 0.0 0.0 0.00 0.01 0.00 95 1017.0
20260901094749 60 206 0.0 0.0 0.00 0.01 0.00 95 1016.9
20260901094709 60 206 0.0 0.0 0.00 0.01 0.00 95 1016.9
20260901094612 60 206 0.0 0.0 0.00 0.01 0.00 95 1016.9
20260901094515 60 206 0.0 0.0 0.00 0.01 0.00 95 1016.9
20260901094437 60 206 0.0 0.0 0.00 0.01 0.00 95 1016.9
20260901094307 60 206 0.0 0.0 0.00 0.01 0.00 95 1016.9
20260901094222 60 206 0.0 0.0 0.00 0.01 0.00 95 1016.9
20260901094032 60 206 0.0 0.0 0.00 0.01 0.00 95 1016.9
20260901093948 60 206 0.0 0.0 0.00 0.01 0.00 95 1016.9
20260901093819 60 206 0.0 0.0 0.00 0.01 0.00 95 1016.9
20260901093740 60 206 0.0 0.0 0.00 0.01 0.00 95 1016.9
20260901093604 60 206 0.0 0.0 0.00 0.01 0.00 95 1016.8
20260901093531 60 206 0.0 0.0 0.00 0.01 0.00 95 1016.8
20260901093342 60 206 0.0 0.0 0.00 0.01 0.00 95 1016.8
20260901093237 60 206 0.0 0.0 0.00 0.01 0.00 95 1016.8
20260901093131 60 206 0.0 0.0 0.00 0.01 0.00 95 1016.8
20260901093051 60 206 0.0 0.0 0.00 0.01 0.00 95 1016.7
20260901093013 60 206 0.0 0.0 0.00 0.01 0.00 95 1016.7
20260901092917 60 206 0.0 0.0 0.00 0.01 0.00 95 1016.7
20260901092838 60 206 0.0 0.0 0.00 0.01 0.00 95 1016.7
20260901092708 60 206 0.0 0.0 0.00 0.01 0.00 95 1016.7
20260901092624 60 206 0.0 0.0 0.00 0.01 0.00 95 1016.7
20260901092437 60 206 0.0 0.0 0.00 0.01 0.00 95 1016.7
20260901092333 60 206 0.0 0.0 0.00 0.01 0.00 95 1016.8
20260901092305 60 206 0.0 0.0 0.00 0.01 0.00 95 1016.8
20260901092207 60 206 0.0 0.0 0.00 0.01 0.00 95 1016.8
20260901092129 60 206 0.0 0.0 0.00 0.01 0.00 95 1016.8
20260901091933 60 206 0.0 0.0 0.00 0.01 0.00 95 1016.9
20260901091834 60 206 0.0 0.0 0.00 0.01 0.00 95 1016.9
20260901091738 60 206 0.0 0.0 0.00 0.01 0.00 95 1016.9
20260901091643 60 206 0.0 0.0 0.00 0.01 0.00 95 1016.8
20260901091604 60 206 0.0 0.0 0.00 0.01 0.00 95 1016.9
20260901091445 60 206 0.0 0.0 0.00 0.01 0.00 95 1016.8
20260901091408 60 206 0.0 0.0 0.00 0.01 0.00 95 1016.8
20260901091216 60 206 0.0 0.0 0.00 0.01 0.00 95 1016.8
20260901091131 60 206 0.0 0.0 0.00 0.01 0.00 95 1016.8
20260901090941 60 206 0.0 0.0 0.00 0.01 0.00 95 1016.8
20260901090835 60 206 0.0 0.0 0.00 0.01 0.00 95 1016.8
20260901090806 60 206 0.0 0.0 0.00 0.01 0.00 95 1016.8
20260901090707 60 206 0.0 0.0 0.00 0.01 0.00 95 1016.9
20260901090630 60 206 0.0 0.0 0.00 0.01 0.00 95 1016.9
20260901090503 60 206 0.0 0.0 0.00 0.01 0.00 95 1016.8
20260901090418 60 206 0.0 0.0 0.00 0.01 0.00 95 1016.9
20260901090227 60 206 0.0 0.0 0.00 0.01 0.00 95 1016.9
20260901090143 60 206 0.0 0.0 0.00 0.01 0.00 95 1016.9
20260901090011 60 206 0.0 0.0 0.00 0.01 0.00 95 1016.9
20260901085933 60 206 0.0 0.0 0.00 0.01 0.00 95 1016.9
20260901085717 60 206 0.0 0.0 0.00 0.01 0.00 95 1017.0
20260901085650 60 206 0.0 0.0 0.00 0.01 0.00 95 1016.9
20260901085552 60 206 0.0 0.0 0.00 0.01 0.00 95 1017.0
20260901085514 60 206 0.0 0.0 0.00 0.01 0.00 95 1017.0
20260901085438 60 206 0.0 0.0 0.00 0.01 0.00 95 1017.0
20260901085321 60 206 0.0 0.0 0.00 0.01 0.00 95 1017.0
20260901085242 60 206 0.0 0.0 0.00 0.01 0.00 95 1017.0
20260901085111 60 206 0.0 0.0 0.00 0.01 0.00 95 1016.9
20260901085027 60 206 0.0 0.0 0.00 0.01 0.00 95 1016.9
20260901084856 60 206 0.0 0.0 0.00 0.01 0.00 95 1016.8
20260901084818 60 206 0.0 0.0 0.00 0.01 0.00 95 1016.7
20260901084641 60 206 0.0 0.0 0.00 0.01 0.00 95 1016.7
20260901084542 60 206 0.0 0.0 0.00 0.01 0.00 95 1016.6
20260901084426 60 206 0.0 0.0 0.00 0.01 0.00 95 1016.6
20260901084347 60 206 0.0 0.0 0.00 0.01 0.00 95 1016.6
20260901084312 60 206 0.0 0.0 0.00 0.01 0.00 95 1016.6
20260901084155 60 206 0.0 0.0 0.00 0.01 0.00 95 1016.7
20260901084116 60 206 0.0 0.0 0.00 0.01 0.00 95 1016.7
20260901083946 60 206 0.0 0.0 0.00 0.01 0.00 95 1016.7
20260901083840 60 206 0.0 0.0 0.00 0.01 0.00 95 1016.8
20260901083659 60 206 0.0 0.0 0.00 0.01 0.00 95 1016.8
20260901083621 60 206 0.0 0.0 0.00 0.01 0.00 95 1016.8
20260901083515 60 206 0.0 0.0 0.00 0.01 0.00 95 1016.8
20260901083324 60 206 0.0 0.0 0.00 0.01 0.00 95 1016.8
20260901083238 60 206 0.0 0.0 0.00 0.01 0.00 95 1016.9
20260901083106 60 206 0.0 0.0 0.00 0.01 0.00 95 1016.9
20260901083028 60 206 0.0 0.0 0.00 0.01 0.00 95 1016.9
20260901082903 60 206 0.0 0.0 0.00 0.01 0.00 95 1017.0
20260901082819 60 206 0.0 0.0 0.00 0.01 0.00 95 1017.0
20260901082622 60 206 0.0 0.0 0.00 0.01 0.00 95 1017.0
20260901082536 60 206 0.0 0.0 0.00 0.01 0.00 95 1017.0
20260901082406 60 206 0.0 0.0 0.00 0.01 0.00 95 1017.0
20260901082328 60 206 0.0 0.0 0.00 0.01 0.00 95 1017.0
20260901082130 60 206 0.0 0.0 0.00 0.01 0.00 95 1017.0
20260901082052 60 206 0.0 0.0 0.00 0.01 0.00 95 1017.0
20260901081935 60 206 0.0 0.0 0.00 0.01 0.00 95 1017.0
20260901081856 60 206 0.0 0.0 0.00 0.01 0.00 95 1017.0
20260901081729 60 206 0.0 0.0 0.00 0.01 0.00 95 1017.0
20260901081624 60 206 0.0 0.0 0.00 0.01 0.00 95 1017.0
20260901081434 60 206 0.0 0.0 0.00 0.01 0.00 95 1017.0
20260901081328 60 206 0.0 0.0 0.00 0.01 0.00 95 1017.0
20260901081249 60 206 0.0 0.0 0.00 0.01 0.00 95 1016.9
20260901081133 60 206 0.0 0.0 0.00 0.01 0.00 95 1016.9
20260901081054 60 206 0.0 0.0 0.00 0.01 0.00 95 1016.9
20260901080958 59 206 0.0 0.0 0.00 0.01 0.00 95 1016.9
20260901080919 60 206 0.0 0.0 0.00 0.01 0.00 95 1016.9
20260901080802 60 206 0.0 0.0 0.00 0.01 0.00 95 1016.8
20260901080720 60 206 0.0 0.0 0.00 0.01 0.00 95 1016.8
20260901080531 60 206 0.0 0.0 0.00 0.01 0.00 95 1016.8
20260901080446 60 206 0.0 0.0 0.00 0.01 0.00 95 1016.8
20260901080252 60 206 0.0 0.0 0.00 0.01 0.00 94 1016.9
20260901080213 60 206 0.0 0.0 0.00 0.01 0.00 94 1017.0
20260901080044 60 206 0.0 0.0 0.00 0.01 0.00 95 1017.0
20260901075939 60 206 0.0 0.0 0.00 0.01 0.00 95 1017.0
20260901075727 60 206 0.0 0.0 0.00 0.01 0.00 95 1017.0
20260901075623 59 206 0.0 0.0 0.00 0.01 0.00 95 1017.0
20260901075521 60 206 0.0 0.0 0.00 0.01 0.00 95 1017.0
20260901075432 60 206 0.0 0.0 0.00 0.01 0.00 95 1017.0
20260901075348 60 206 0.0 0.0 0.00 0.01 0.00 95 1017.0
20260901075207 60 206 0.0 0.0 0.00 0.01 0.00 95 1017.0
20260901075015 60 206 0.0 0.0 0.00 0.01 0.00 95 1016.9
20260901074931 60 206 0.0 0.0 0.00 0.01 0.00 95 1016.9
20260901074811 60 206 0.0 0.0 0.00 0.01 0.00 95 1016.9
20260901074732 60 206 0.0 0.0 0.00 0.01 0.00 95 1016.9
20260901074514 60 206 0.0 0.0 0.00 0.01 0.00 95 1016.9
20260901074446 60 206 0.0 0.0 0.00 0.01 0.00 95 1016.9
20260901074352 60 206 0.0 0.0 0.00 0.01 0.00 95 1016.9
20260901074230 60 206 0.0 0.0 0.00 0.01 0.00 95 1016.9
20260901074133 60 206 0.0 0.0 0.00 0.01 0.00 95 1016.9
20260901074034 60 206 0.0 0.0 0.00 0.01 0.00 95 1016.9
20260901073913 59 206 0.0 0.0 0.00 0.01 0.00 95 1016.9
20260901073828 60 206 0.0 0.0 0.00 0.01 0.00 95 1016.9
20260901073657 59 206 0.0 0.0 0.00 0.01 0.00 95 1017.0
20260901073620 59 206 0.0 0.0 0.00 0.01 0.00 94 1017.1
20260901073423 59 206 0.0 0.0 0.00 0.01 0.00 95 1017.1
20260901073344 59 206 0.0 0.0 0.00 0.01 0.00 95 1017.1
20260901073238 59 206 0.0 0.0 0.00 0.01 0.00 95 1017.1
20260901073143 59 206 0.0 0.0 0.00 0.01 0.00 95 1017.1
20260901073025 59 206 0.0 0.0 0.00 0.01 0.00 95 1017.1
20260901072946 59 206 0.0 0.0 0.00 0.01 0.00 94 1017.1
20260901072829 59 206 0.0 0.0 0.00 0.01 0.00 94 1017.1
20260901072729 59 206 0.0 0.0 0.00 0.01 0.00 94 1017.1
20260901072642 59 206 0.0 0.0 0.00 0.01 0.00 94 1017.0
20260901072605 59 206 0.0 0.0 0.00 0.01 0.00 94 1017.0
20260901072527 59 206 0.0 0.0 0.00 0.01 0.00 94 1017.0
20260901072335 59 206 0.0 0.0 0.00 0.01 0.00 94 1017.1
20260901072230 59 206 0.0 0.0 0.00 0.01 0.00 95 1017.1
20260901072103 59 206 0.0 0.0 0.00 0.01 0.00 95 1017.1
20260901072026 59 206 0.0 0.0 0.00 0.01 0.00 95 1017.1
20260901071829 59 206 0.0 0.0 0.00 0.01 0.00 95 1017.1
20260901071750 59 206 0.0 0.0 0.00 0.01 0.00 95 1017.1
20260901071653 59 206 0.0 0.0 0.00 0.01 0.00 94 1017.1
20260901071614 59 206 0.0 0.0 0.00 0.01 0.00 94 1017.1
20260901071445 59 206 0.0 0.0 0.00 0.01 0.00 94 1017.0
20260901071340 59 206 0.0 0.0 0.00 0.01 0.00 94 1017.0
20260901071233 59 206 0.0 0.0 0.00 0.01 0.00 94 1017.0
20260901071153 59 206 0.0 0.0 0.00 0.01 0.00 94 1017.0
20260901071120 59 206 0.0 0.0 0.00 0.01 0.00 94 1017.0
20260901071000 59 206 0.0 0.0 0.00 0.01 0.00 94 1017.1
20260901070928 59 206 0.0 0.0 0.00 0.01 0.00 94 1017.1
20260901070756 59 206 0.0 0.0 0.00 0.01 0.00 94 1017.2
20260901070718 59 206 0.0 0.0 0.00 0.01 0.00 94 1017.2
20260901070540 59 206 0.0 0.0 0.00 0.01 0.00 94 1017.2
20260901070441 60 206 0.0 0.0 0.00 0.01 0.00 94 1017.2
20260901070325 60 206 0.0 0.0 0.00 0.01 0.00 94 1017.2
20260901070246 59 206 0.0 0.0 0.00 0.01 0.00 95 1017.1
20260901070151 60 206 0.0 0.0 0.00 0.01 0.00 94 1017.1
20260901070034 59 206 0.0 0.0 0.00 0.01 0.00 94 1017.1
20260901065955 59 206 0.0 0.0 0.00 0.01 0.00 94 1017.2
20260901065839 60 206 0.0 0.0 0.00 0.01 0.00 95 1017.1
20260901065737 60 206 0.0 0.0 0.00 0.01 0.00 94 1017.2
20260901065638 60 206 0.0 0.0 0.00 0.01 0.00 94 1017.2
20260901065601 59 206 0.0 0.0 0.00 0.01 0.00 95 1017.2
20260901065429 60 206 0.0 0.0 0.00 0.01 0.00 95 1017.2
20260901065323 60 206 0.0 0.0 0.00 0.01 0.00 95 1017.2
20260901065153 60 206 0.0 0.0 0.00 0.01 0.00 95 1017.1
20260901065115 59 206 0.0 0.0 0.00 0.01 0.00 95 1017.1
20260901064940 59 206 0.0 0.0 0.00 0.01 0.00 95 1017.2
20260901064844 60 206 0.0 0.0 0.00 0.01 0.00 95 1017.2
20260901064727 59 206 0.0 0.0 0.00 0.01 0.00 95 1017.2
20260901064649 59 206 0.0 0.0 0.00 0.01 0.00 95 1017.2
20260901064520 59 206 0.0 0.0 0.00 0.01 0.00 95 1017.2
20260901064412 59 206 0.0 0.0 0.00 0.01 0.00 94 1017.2
20260901064230 59 206 0.0 0.0 0.00 0.01 0.00 94 1017.3
20260901064130 59 206 0.0 0.0 0.00 0.01 0.00 94 1017.3
20260901064013 59 206 0.0 0.0 0.00 0.01 0.00 94 1017.3
20260901063936 59 206 0.0 0.0 0.00 0.01 0.00 94 1017.3
20260901063805 59 206 0.0 0.0 0.00 0.01 0.00 94 1017.3
20260901063720 59 206 0.0 0.0 0.00 0.01 0.00 94 1017.3
20260901063550 59 206 0.0 0.0 0.00 0.01 0.00 94 1017.3
20260901063515 59 206 0.0 0.0 0.00 0.01 0.00 94 1017.2
20260901063358 59 206 0.0 0.0 0.00 0.01 0.00 94 1017.2
20260901063320 59 206 0.0 0.0 0.00 0.01 0.00 94 1017.3
20260901063132 59 206 0.0 0.0 0.00 0.01 0.00 94 1017.3
20260901063024 59 206 0.0 0.0 0.00 0.01 0.00 95 1017.2
20260901062946 59 206 0.0 0.0 0.00 0.01 0.00 94 1017.2
20260901062849 59 206 0.0 0.0 0.00 0.01 0.00 94 1017.2
20260901062728 59 206 0.0 0.0 0.00 0.01 0.00 94 1017.2
20260901062630 59 206 0.0 0.0 0.00 0.01 0.00 94 1017.2
20260901062551 59 206 0.0 0.0 0.00 0.01 0.00 94 1017.2
20260901062455 59 206 0.0 0.0 0.00 0.01 0.00 94 1017.2
20260901062319 59 206 0.0 0.0 0.00 0.01 0.00 94 1017.2
20260901062149 59 206 0.0 0.0 0.00 0.01 0.00 94 1017.3
20260901062043 59 206 0.0 0.0 0.00 0.01 0.00 94 1017.3
20260901061913 59 206 0.0 0.0 0.00 0.01 0.00 94 1017.4
20260901061815 59 206 0.0 0.0 0.00 0.01 0.00 94 1017.4
20260901061625 59 206 0.0 0.0 0.00 0.01 0.00 94 1017.4
20260901061547 59 206 0.0 0.0 0.00 0.01 0.00 94 1017.5
20260901061430 59 206 0.0 0.0 0.00 0.01 0.00 94 1017.5
20260901061346 59 206 0.0 0.0 0.00 0.01 0.00 95 1017.6
20260901061227 60 206 0.0 0.0 0.00 0.01 0.00 94 1017.6
20260901061149 59 206 0.0 0.0 0.00 0.01 0.00 95 1017.6
20260901061110 60 206 0.0 0.0 0.00 0.01 0.00 95 1017.5
20260901061016 60 206 0.0 0.0 0.00 0.01 0.00 95 1017.6
20260901060937 60 206 0.0 0.0 0.00 0.01 0.00 95 1017.6
20260901060808 60 206 0.0 0.0 0.00 0.01 0.00 95 1017.5
20260901060723 60 206 0.0 0.0 0.00 0.01 0.00 95 1017.5
20260901060552 60 206 0.0 0.0 0.00 0.01 0.00 95 1017.5
20260901060515 60 206 0.0 0.0 0.00 0.01 0.00 95 1017.5
20260901060337 60 206 0.0 0.0 0.00 0.01 0.00 95 1017.5
20260901060238 60 206 0.0 0.0 0.00 0.01 0.00 95 1017.5
20260901060126 60 206 0.0 0.0 0.00 0.01 0.00 95 1017.5
20260901060048 60 206 0.0 0.0 0.00 0.01 0.00 95 1017.6
20260901055917 60 206 0.0 0.0 0.00 0.01 0.00 95 1017.6
20260901055831 60 206 0.0 0.0 0.00 0.01 0.00 95 1017.6
20260901055641 60 206 0.0 0.0 0.00 0.01 0.00 95 1017.5
20260901055535 60 206 0.0 0.0 0.00 0.01 0.00 95 1017.5
20260901055431 60 206 0.0 0.0 0.00 0.01 0.00 95 1017.5
20260901055354 60 206 0.0 0.0 0.00 0.01 0.00 95 1017.5
20260901055140 60 206 0.0 0.0 0.00 0.01 0.00 95 1017.6
20260901055040 60 206 0.0 0.0 0.00 0.01 0.00 95 1017.6
20260901054943 60 206 0.0 0.0 0.00 0.01 0.00 95 1017.7
20260901054905 60 206 0.0 0.0 0.00 0.01 0.00 95 1017.7
20260901054713 60 206 0.0 0.0 0.00 0.01 0.00 95 1017.8
20260901054627 60 206 0.0 0.0 0.00 0.01 0.00 95 1017.8
20260901054437 60 206 0.0 0.0 0.00 0.01 0.00 95 1017.8
20260901054331 60 206 0.0 0.0 0.00 0.01 0.00 95 1017.8
20260901054251 59 206 0.0 0.0 0.00 0.01 0.00 95 1017.8
20260901054204 59 206 0.0 0.0 0.00 0.01 0.00 95 1017.8
20260901054130 59 206 0.0 0.0 0.00 0.01 0.00 95 1017.8
20260901053959 59 206 0.0 0.0 0.00 0.01 0.00 95 1017.8
20260901053901 59 206 0.0 0.0 0.00 0.01 0.00 95 1017.8
20260901053742 59 206 0.0 0.0 0.00 0.01 0.00 95 1017.7
20260901053704 59 206 0.0 0.0 0.00 0.01 0.00 95 1017.7
20260901053512 59 206 0.0 0.0 0.00 0.01 0.00 95 1017.8
20260901053428 59 206 0.0 0.0 0.00 0.01 0.00 95 1017.8
20260901053256 59 206 0.0 0.0 0.00 0.01 0.00 95 1017.7
20260901053156 59 206 0.0 0.0 0.00 0.01 0.00 95 1017.7
20260901053059 59 206 0.0 0.0 0.00 0.01 0.00 95 1017.7
20260901053022 59 206 0.0 0.0 0.00 0.01 0.00 95 1017.7
20260901052944 59 206 0.0 0.0 0.00 0.01 0.00 95 1017.7
20260901052806 59 206 0.0 0.0 0.00 0.01 0.00 95 1017.7
20260901052732 59 206 0.0 0.0 0.00 0.01 0.00 95 1017.7
20260901052542 59 206 0.0 0.0 0.00 0.01 0.00 95 1017.7
20260901052436 59 206 0.0 0.0 0.00 0.01 0.00 95 1017.7
20260901052408 59 206 0.0 0.0 0.00 0.01 0.00 95 1017.7
20260901052311 59 206 0.0 0.0 0.00 0.01 0.00 95 1017.7
20260901052233 59 206 0.0 0.0 0.00 0.01 0.00 95 1017.7
20260901052037 59 206 0.0 0.0 0.00 0.01 0.00 95 1017.9
20260901051938 59 206 0.0 0.0 0.00 0.01 0.00 95 1017.9
20260901051824 59 206 0.0 0.0 0.00 0.01 0.00 95 1017.9
20260901051745 59 206 0.0 0.0 0.00 0.01 0.00 95 1017.9
20260901051625 59 206 0.0 0.0 0.00 0.01 0.00 95 1017.9
20260901051548 59 206 0.0 0.0 0.00 0.01 0.00 95 1017.9
20260901051417 59 206 0.0 0.0 0.00 0.01 0.00 95 1018.0
20260901051331 59 206 0.0 0.0 0.00 0.01 0.00 95 1017.9
20260901051139 59 206 0.0 0.0 0.00 0.01 0.00 95 1018.0
20260901051040 59 206 0.0 0.0 0.00 0.01 0.00 95 1018.0
20260901050842 59 206 0.0 0.0 0.00 0.01 0.00 95 1018.0
20260901050803 59 206 0.0 0.0 0.00 0.01 0.00 95 1018.0
20260901050705 59 206 0.0 0.0 0.00 0.01 0.00 95 1018.0
20260901050627 59 206 0.0 0.0 0.00 0.01 0.00 95 1018.0
20260901050501 59 206 0.0 0.0 0.00 0.01 0.00 95 1018.0
20260901050423 59 206 0.0 0.0 0.00 0.01 0.00 95 1018.0
20260901050226 59 206 0.0 0.0 0.00 0.01 0.00 95 1018.0
20260901050147 59 206 0.0 0.0 0.00 0.01 0.00 95 1018.0
20260901050052 59 206 0.0 0.0 0.00 0.01 0.00 95 1018.0
20260901050012 59 206 0.0 0.0 0.00 0.01 0.00 95 1018.0
20260901045751 59 206 0.0 0.0 0.00 0.01 0.00 95 1017.9
20260901045645 59 206 0.0 0.0 0.00 0.01 0.00 95 1017.9
20260901045514 59 206 0.0 0.0 0.00 0.01 0.00 95 1017.9
20260901045437 59 206 0.0 0.0 0.00 0.01 0.00 95 1017.9
20260901045223 59 206 0.0 0.0 0.00 0.01 0.00 95 1017.9
20260901045144 59 206 0.0 0.0 0.00 0.01 0.00 95 1017.9
20260901045049 59 206 0.0 0.0 0.00 0.01 0.00 95 1017.9
20260901045011 59 206 0.0 0.0 0.00 0.01 0.00 95 1017.8
20260901044840 59 206 0.0 0.0 0.00 0.01 0.00 95 1017.8
20260901044733 58 206 0.0 0.0 0.00 0.01 0.00 95 1017.8
20260901044544 58 206 0.0 0.0 0.00 0.01 0.00 95 1017.9
20260901044458 58 206 0.0 0.0 0.00 0.01 0.00 95 1017.9
20260901044307 58 206 0.0 0.0 0.00 0.01 0.00 95 1018.0
20260901044230 58 206 0.0 0.0 0.00 0.01 0.00 95 1018.0
20260901044054 58 206 0.0 0.0 0.00 0.01 0.00 95 1018.0
20260901044015 58 206 0.0 0.0 0.00 0.01 0.00 95 1018.0
20260901043828 58 206 0.0 0.0 0.00 0.01 0.00 95 1018.1
20260901043742 58 206 0.0 0.0 0.00 0.01 0.00 95 1018.0
20260901043644 58 206 0.0 0.0 0.00 0.01 0.00 95 1018.0
20260901043527 58 206 0.0 0.0 0.00 0.01 0.00 95 1018.0
20260901043448 58 206 0.0 0.0 0.00 0.01 0.00 95 1018.0
20260901043340 58 206 0.0 0.0 0.00 0.01 0.00 95 1018.0
20260901043240 58 206 0.0 0.0 0.00 0.01 0.00 95 1018.0
20260901043110 58 206 0.0 0.0 0.00 0.01 0.00 95 1018.0
20260901043025 58 206 0.0 0.0 0.00 0.01 0.00 95 1018.0
20260901042854 58 206 0.0 0.0 0.00 0.01 0.00 95 1018.0
20260901042822 58 206 0.0 0.0 0.00 0.01 0.00 95 1018.0
20260901042714 58 206 0.0 0.0 0.00 0.01 0.00 95 1018.1
20260901042544 58 206 0.0 0.0 0.00 0.01 0.00 95 1018.0
20260901042507 58 206 0.0 0.0 0.00 0.01 0.00 95 1018.1
20260901042335 58 206 0.0 0.0 0.00 0.01 0.00 95 1018.2
20260901042229 58 206 0.0 0.0 0.00 0.01 0.00 95 1018.2
20260901042058 58 206 0.0 0.0 0.00 0.01 0.00 94 1018.2
20260901042022 58 206 0.0 0.0 0.00 0.01 0.00 94 1018.2
20260901041936 58 206 0.0 0.0 0.00 0.01 0.00 95 1018.2
20260901041805 58 206 0.0 0.0 0.00 0.01 0.00 94 1018.2
20260901041726 58 206 0.0 0.0 0.00 0.01 0.00 94 1018.2
20260901041528 58 206 0.0 0.0 0.00 0.01 0.00 94 1018.1
20260901041453 58 206 0.0 0.0 0.00 0.01 0.00 94 1018.1
20260901041335 58 206 0.0 0.0 0.00 0.01 0.00 94 1018.1
20260901041257 58 206 0.0 0.0 0.00 0.01 0.00 94 1018.1
20260901041039 58 206 0.0 0.0 0.00 0.01 0.00 94 1018.1
20260901040941 58 206 0.0 0.0 0.00 0.01 0.00 94 1018.0
20260901040842 58 206 0.0 0.0 0.00 0.01 0.00 94 1018.1
20260901040805 58 206 0.0 0.0 0.00 0.01 0.00 94 1018.0
20260901040633 58 206 0.0 0.0 0.00 0.01 0.00 94 1018.0
20260901040527 58 206 0.0 0.0 0.00 0.01 0.00 94 1018.0
20260901040340 58 206 0.0 0.0 0.00 0.01 0.00 94 1017.9
20260901040234 58 206 0.0 0.0 0.00 0.01 0.00 94 1017.9
20260901040127 58 206 0.0 0.0 0.00 0.01 0.00 94 1017.9
20260901040028 58 206 0.0 0.0 0.00 0.01 0.00 94 1017.9
20260901035931 58 206 0.0 0.0 0.00 0.01 0.00 93 1017.9
20260901035853 58 206 0.0 0.0 0.00 0.01 0.01 93 1018.0
20260901035611 58 206 0.0 0.0 0.00 0.01 0.01 93 1017.9
20260901035527 58 206 0.0 0.0 0.00 0.01 0.01 93 1017.9
20260901035355 58 206 0.0 0.0 0.00 0.01 0.01 93 1017.9
20260901035317 58 206 0.0 0.0 0.00 0.01 0.01 93 1017.9
20260901035126 58 206 0.0 0.0 0.00 0.01 0.01 94 1017.8
20260901035029 58 206 0.0 0.0 0.00 0.01 0.01 94 1017.7
20260901034932 58 206 0.0 0.0 0.00 0.01 0.01 94 1017.7
20260901034852 58 206 0.0 0.0 0.00 0.01 0.01 94 1017.7
20260901034752 58 206 0.0 0.0 0.00 0.01 0.01 94 1017.7
20260901034655 58 206 0.0 0.0 0.00 0.01 0.01 94 1017.7
20260901034554 58 206 0.0 0.0 0.00 0.01 0.01 94 1017.6
20260901034514 58 206 0.0 0.0 0.00 0.01 0.01 94 1017.6
20260901034357 58 206 0.0 0.0 0.00 0.01 0.01 94 1017.6
20260901034319 58 206 0.0 0.0 0.00 0.01 0.01 94 1017.6
20260901034128 58 206 0.0 0.0 0.00 0.01 0.01 93 1017.7
20260901034030 58 206 0.0 0.0 0.00 0.01 0.01 93 1017.7
20260901033933 58 206 0.0 0.0 0.00 0.01 0.01 93 1017.7
20260901033835 58 206 0.0 0.0 0.00 0.01 0.01 93 1017.7
20260901033756 58 206 0.0 0.0 0.00 0.01 0.01 93 1017.7
20260901033658 58 206 0.0 0.0 0.00 0.01 0.01 94 1017.7
20260901033621 58 206 0.0 0.0 0.00 0.01 0.01 93 1017.7
20260901033426 58 206 0.0 0.0 0.00 0.01 0.01 93 1017.7
20260901033326 58 206 0.0 0.0 0.00 0.01 0.01 93 1017.7
20260901033233 58 206 0.0 0.0 0.00 0.01 0.01 94 1017.7
20260901033155 58 206 0.0 0.0 0.00 0.01 0.01 93 1017.7
20260901033024 58 206 0.0 0.0 0.00 0.01 0.01 93 1017.7
20260901032916 58 206 0.0 0.0 0.00 0.01 0.01 93 1017.6
20260901032817 58 206 0.0 0.0 0.00 0.01 0.01 93 1017.6
20260901032727 59 206 0.0 0.0 0.00 0.01 0.01 94 1017.7
20260901032619 59 206 0.0 0.0 0.00 0.01 0.01 94 1017.7
20260901032429 59 206 0.0 0.0 0.00 0.01 0.01 94 1017.6
20260901032345 59 206 0.0 0.0 0.00 0.01 0.01 94 1017.5
20260901032214 59 206 0.0 0.0 0.00 0.01 0.01 93 1017.5
20260901032137 59 206 0.0 0.0 0.00 0.01 0.01 93 1017.5
20260901031924 59 206 0.0 0.0 0.00 0.01 0.01 93 1017.4
20260901031846 59 206 0.0 0.0 0.00 0.01 0.01 93 1017.4
20260901031750 59 206 0.0 0.0 0.00 0.01 0.01 94 1017.4
20260901031711 59 206 0.0 0.0 0.00 0.01 0.01 94 1017.4
20260901031611 59 206 0.0 0.0 0.00 0.01 0.01 94 1017.4
20260901031515 59 206 0.0 0.0 0.00 0.01 0.01 94 1017.4
20260901031437 59 206 0.0 0.0 0.00 0.01 0.01 94 1017.4
20260901031308 59 206 0.0 0.0 0.00 0.01 0.01 94 1017.4
20260901031223 59 206 0.0 0.0 0.00 0.01 0.01 94 1017.4
20260901031054 59 206 0.0 0.0 0.00 0.01 0.01 94 1017.5
20260901031015 59 206 0.0 0.0 0.00 0.01 0.01 94 1017.4
20260901030846 59 206 0.0 0.0 0.00 0.01 0.01 94 1017.5
20260901030744 59 206 0.0 0.0 0.00 0.01 0.01 94 1017.5
20260901030614 59 206 0.0 0.0 0.00 0.01 0.01 94 1017.5
20260901030536 59 206 0.0 0.0 0.00 0.01 0.01 94 1017.5
20260901030338 59 206 0.0 0.0 0.00 0.01 0.01 94 1017.6
20260901030300 59 206 0.0 0.0 0.00 0.01 0.01 94 1017.6
20260901030124 59 206 0.0 0.0 0.00 0.01 0.01 94 1017.6
20260901030040 59 206 0.0 0.0 0.00 0.01 0.01 94 1017.6
20260901025910 59 206 0.0 0.0 0.00 0.01 0.01 93 1017.6
20260901025832 59 206 0.0 0.0 0.00 0.01 0.01 93 1017.6
20260901025655 59 206 0.0 0.0 0.00 0.01 0.01 93 1017.7
20260901025621 59 206 0.0 0.0 0.00 0.01 0.01 93 1017.8
20260901025430 59 206 0.0 0.0 0.00 0.01 0.01 93 1017.8
20260901025317 59 206 0.0 0.0 0.00 0.01 0.01 93 1017.8
20260901025220 59 206 0.0 0.0 0.00 0.01 0.01 93 1017.8
20260901025121 59 206 0.0 0.0 0.00 0.01 0.01 93 1017.7
20260901024951 59 206 0.0 0.0 0.00 0.01 0.01 93 1017.7
20260901024855 59 206 0.0 0.0 0.00 0.01 0.01 93 1017.7
20260901024816 59 206 0.0 0.0 0.00 0.01 0.01 93 1017.7
20260901024647 59 206 0.0 0.0 0.00 0.01 0.01 93 1017.7
20260901024602 59 206 0.0 0.0 0.00 0.01 0.01 93 1017.7
20260901024437 59 206 0.0 0.0 0.00 0.01 0.01 93 1017.7
20260901024337 59 206 0.0 0.0 0.00 0.01 0.01 93 1017.7
20260901024148 59 206 0.0 0.0 0.00 0.01 0.01 93 1017.7
20260901024043 59 206 0.0 0.0 0.00 0.01 0.01 93 1017.7
20260901023912 59 206 0.0 0.0 0.00 0.01 0.01 93 1017.7
20260901023835 59 206 0.0 0.0 0.00 0.01 0.01 93 1017.7
20260901023638 59 206 0.0 0.0 0.00 0.01 0.01 93 1017.8
20260901023559 59 206 0.0 0.0 0.00 0.01 0.01 93 1017.9
20260901023423 59 206 0.0 0.0 0.00 0.01 0.01 93 1017.9
20260901023338 59 206 0.0 0.0 0.00 0.01 0.01 93 1017.9
20260901023211 59 206 0.0 0.0 0.00 0.01 0.01 93 1017.8
20260901023134 59 206 0.0 0.0 0.00 0.01 0.01 93 1017.8
20260901022938 59 206 0.0 0.0 0.00 0.01 0.01 93 1017.8
20260901022858 59 206 0.0 0.0 0.00 0.01 0.01 93 1017.8
20260901022740 59 206 0.0 0.0 0.00 0.01 0.01 93 1017.9
20260901022701 59 206 0.0 0.0 0.00 0.01 0.01 93 1017.9
20260901022525 59 206 0.0 0.0 0.00 0.01 0.01 93 1017.9
20260901022446 59 206 0.0 0.0 0.00 0.01 0.01 93 1017.8
20260901022306 59 206 0.0 0.0 0.00 0.01 0.01 93 1017.8
20260901022124 59 206 0.0 0.0 0.00 0.01 0.01 93 1017.8
20260901022027 59 206 0.0 0.0 0.00 0.01 0.01 93 1017.8
20260901021948 59 206 0.0 0.0 0.00 0.01 0.01 93 1017.8
20260901021847 59 206 0.0 0.0 0.00 0.01 0.01 93 1017.7
20260901021730 59 206 0.0 0.0 0.00 0.01 0.01 93 1017.7
20260901021626 59 206 0.0 0.0 0.00 0.01 0.01 93 1017.7
20260901021528 59 206 0.0 0.0 0.00 0.01 0.01 92 1017.7
20260901021444 59 206 0.0 0.0 0.00 0.01 0.01 92 1017.7
20260901021312 59 206 0.0 0.0 0.00 0.01 0.01 92 1017.6
20260901021217 59 206 0.0 0.0 0.00 0.01 0.01 92 1017.6
20260901021048 59 206 0.0 0.0 0.00 0.01 0.01 92 1017.6
20260901020941 60 206 0.0 0.0 0.00 0.01 0.01 92 1017.6
20260901020824 60 206 0.0 0.0 0.00 0.01 0.01 92 1017.7
20260901020744 60 206 0.0 0.0 0.00 0.01 0.01 92 1017.7
20260901020615 60 206 0.0 0.0 0.00 0.01 0.01 92 1017.6
20260901020530 60 206 0.0 0.0 0.00 0.01 0.01 92 1017.6
20260901020340 60 206 0.0 0.0 0.00 0.01 0.01 92 1017.6
20260901020235 60 206 0.0 0.0 0.00 0.01 0.01 92 1017.6
20260901020121 60 206 0.0 0.0 0.00 0.01 0.01 92 1017.6
20260901020025 60 206 0.0 0.0 0.00 0.01 0.01 92 1017.6
20260901015940 60 206 0.0 0.0 0.00 0.01 0.01 92 1017.6
20260901015809 60 206 0.0 0.0 0.00 0.01 0.01 92 1017.7
20260901015731 60 206 0.0 0.0 0.00 0.01 0.01 92 1017.7
20260901015535 60 206 0.0 0.0 0.00 0.01 0.01 92 1017.7
20260901015456 60 206 0.0 0.0 0.00 0.01 0.01 92 1017.7
20260901015340 60 206 0.0 0.0 0.00 0.01 0.01 92 1017.7
20260901015305 60 206 0.0 0.0 0.00 0.01 0.01 92 1017.7
20260901015114 60 206 0.0 0.0 0.00 0.01 0.01 92 1017.7
20260901015030 60 206 0.0 0.0 0.00 0.01 0.01 92 1017.7
20260901014841 60 206 0.0 0.0 0.00 0.01 0.01 92 1017.8
20260901014736 60 206 0.0 0.0 0.00 0.01 0.01 92 1017.7
20260901014658 60 206 0.0 0.0 0.00 0.01 0.01 92 1017.7
20260901014524 60 206 0.0 0.0 0.00 0.01 0.01 92 1017.7
20260901014428 60 206 0.0 0.0 0.00 0.01 0.01 92 1017.7
20260901014328 60 206 0.0 0.0 0.00 0.01 0.01 92 1017.7
20260901014248 60 206 0.0 0.0 0.00 0.01 0.01 92 1017.7
20260901014209 60 206 0.0 0.0 0.00 0.01 0.01 92 1017.6
20260901014131 60 206 0.0 0.0 0.00 0.01 0.01 92 1017.6
20260901013934 60 206 0.0 0.0 0.00 0.01 0.01 92 1017.6
20260901013857 60 206 0.0 0.0 0.00 0.01 0.01 92 1017.6
20260901013740 61 206 0.0 0.0 0.00 0.01 0.01 92 1017.6
20260901013659 61 206 0.0 0.0 0.00 0.01 0.01 92 1017.6
20260901013540 61 206 0.0 0.0 0.00 0.01 0.01 92 1017.7
20260901013501 61 206 0.0 0.0 0.00 0.01 0.01 91 1017.7
20260901013323 61 206 0.0 0.0 0.00 0.01 0.01 91 1017.7
20260901013228 61 206 0.0 0.0 0.00 0.01 0.01 91 1017.7
20260901013149 61 206 0.0 0.0 0.00 0.01 0.01 91 1017.7
20260901013052 61 206 0.0 0.0 0.00 0.01 0.01 91 1017.7
20260901013013 61 206 0.0 0.0 0.00 0.01 0.01 91 1017.7
20260901012935 61 206 0.0 0.0 0.00 0.01 0.01 91 1017.7
20260901012816 61 206 0.0 0.0 0.00 0.01 0.01 91 1017.7
20260901012738 61 206 0.0 0.0 0.00 0.01 0.01 91 1017.7
20260901012609 61 206 0.0 0.0 0.00 0.01 0.01 91 1017.6
20260901012523 61 206 0.0 0.0 0.00 0.01 0.01 91 1017.6
20260901012352 61 206 0.0 0.0 0.00 0.01 0.01 91 1017.7
20260901012252 61 206 0.0 0.0 0.00 0.01 0.01 91 1017.7
20260901012140 61 206 0.0 0.0 0.00 0.01 0.01 91 1017.7
20260901012101 61 206 0.0 0.0 0.00 0.01 0.01 91 1017.7
20260901011924 61 206 0.0 0.0 0.00 0.01 0.01 91 1017.7
20260901011845 61 206 0.0 0.0 0.00 0.01 0.01 91 1017.6
20260901011716 61 206 0.0 0.0 0.00 0.01 0.01 91 1017.6
20260901011631 61 206 0.0 0.0 0.00 0.01 0.01 91 1017.6
20260901011501 61 206 0.0 0.0 0.00 0.01 0.01 91 1017.6
20260901011423 61 206 0.0 0.0 0.00 0.01 0.01 91 1017.6
20260901011226 61 206 0.0 0.0 0.00 0.01 0.01 91 1017.6
20260901011148 61 206 0.0 0.0 0.00 0.01 0.01 91 1017.7
20260901011037 61 206 0.0 0.0 0.00 0.01 0.01 91 1017.6
20260901010958 61 206 0.0 0.0 0.00 0.01 0.01 91 1017.6
20260901010919 61 206 0.0 0.0 0.00 0.01 0.01 91 1017.7
20260901010801 61 206 0.0 0.0 0.00 0.01 0.01 91 1017.6
20260901010723 61 206 0.0 0.0 0.00 0.01 0.01 91 1017.6
20260901010527 62 206 0.0 1.0 0.00 0.01 0.01 91 1017.7
20260901010428 62 206 0.0 1.0 0.00 0.01 0.01 91 1017.7
20260901010332 62 206 0.0 1.0 0.00 0.01 0.01 91 1017.7
20260901010232 62 206 0.0 1.0 0.00 0.01 0.01 91 1017.7
20260901010017 62 206 0.0 1.0 0.00 0.01 0.01 90 1017.6
20260901005850 62 206 0.0 1.0 0.00 0.01 0.01 90 1017.6
20260901005812 62 206 0.0 1.0 0.00 0.01 0.01 90 1017.5
20260901005615 62 206 0.0 0.0 0.00 0.01 0.01 90 1017.5
20260901005536 62 206 0.0 0.0 0.00 0.01 0.01 90 1017.5
20260901005407 62 206 0.0 0.0 0.00 0.01 0.01 91 1017.5
20260901005307 62 206 0.0 0.0 0.00 0.01 0.01 91 1017.6
20260901005148 62 206 0.0 0.0 0.00 0.01 0.01 90 1017.5
20260901005028 62 206 0.0 0.0 0.00 0.01 0.01 90 1017.6
20260901004931 62 206 0.0 0.0 0.00 0.01 0.01 90 1017.6
20260901004852 62 206 0.0 0.0 0.00 0.01 0.01 90 1017.6
20260901004813 62 206 0.0 0.0 0.00 0.01 0.01 90 1017.6
20260901004715 62 206 0.0 1.0 0.00 0.01 0.01 90 1017.6
20260901004641 62 206 0.0 1.0 0.00 0.01 0.01 90 1017.6
20260901004511 62 206 0.0 1.0 0.00 0.01 0.01 90 1017.5
20260901004427 62 206 0.0 1.0 0.00 0.01 0.01 90 1017.5
20260901004256 62 206 0.0 1.0 0.00 0.01 0.01 90 1017.6
20260901004218 62 206 0.0 1.0 0.00 0.01 0.01 90 1017.6
20260901004049 63 206 0.0 1.0 0.00 0.01 0.01 90 1017.6
20260901003944 63 206 0.0 1.0 0.00 0.01 0.01 89 1017.6
20260901003826 63 206 0.0 1.0 0.00 0.01 0.01 89 1017.6
20260901003748 63 206 0.0 1.0 0.00 0.01 0.01 89 1017.6
20260901003710 63 206 0.0 1.0 0.00 0.01 0.01 89 1017.6
20260901003613 63 206 1.0 1.0 0.00 0.01 0.01 89 1017.6
20260901003538 63 206 1.0 1.0 0.00 0.01 0.01 89 1017.6
20260901003408 63 206 0.0 1.0 0.00 0.01 0.01 88 1017.6
20260901003240 63 206 0.0 1.0 0.00 0.01 0.01 89 1017.6
20260901003211 63 206 0.0 1.0 0.00 0.01 0.01 89 1017.6
20260901003116 63 206 0.0 1.0 0.00 0.01 0.01 88 1017.6
20260901003016 63 206 0.0 1.0 0.00 0.01 0.01 88 1017.6
20260901002847 63 206 0.0 1.0 0.00 0.01 0.01 88 1017.6
20260901002741 63 206 0.0 1.0 0.00 0.01 0.01 88 1017.6
20260901002625 63 206 1.0 1.0 0.00 0.01 0.01 88 1017.6
20260901002530 63 206 1.0 1.0 0.00 0.01 0.01 88 1017.6
20260901002451 63 206 1.0 1.0 0.00 0.01 0.01 88 1017.5
20260901002354 63 206 0.0 1.0 0.00 0.01 0.01 88 1017.5
20260901002316 63 206 0.0 0.0 0.00 0.01 0.01 88 1017.5
20260901002145 64 206 0.0 0.0 0.00 0.01 0.01 88 1017.5
20260901002040 64 206 0.0 0.0 0.00 0.01 0.01 88 1017.5
20260901002011 64 206 0.0 0.0 0.00 0.01 0.01 88 1017.5
20260901001915 64 206 0.0 0.0 0.00 0.01 0.01 88 1017.5
20260901001836 64 206 0.0 0.0 0.00 0.01 0.01 88 1017.5
20260901001706 64 206 0.0 0.0 0.00 0.01 0.01 88 1017.5
20260901001622 64 206 0.0 0.0 0.00 0.01 0.01 88 1017.5
20260901001452 64 206 0.0 0.0 0.00 0.01 0.01 87 1017.5
20260901001418 64 206 0.0 0.0 0.00 0.01 0.01 87 1017.5
20260901001248 64 206 0.0 0.0 0.00 0.01 0.01 87 1017.5
20260901001121 64 206 0.0 0.0 0.00 0.01 0.01 87 1017.6
20260901001044 64 206 0.0 0.0 0.00 0.01 0.01 87 1017.6
20260901000927 64 206 0.0 0.0 0.00 0.01 0.01 87 1017.6
20260901000901 64 206 0.0 0.0 0.00 0.01 0.01 87 1017.6
20260901000701 64 206 0.0 0.0 0.00 0.01 0.01 86 1017.6
20260901000541 64 206 0.0 0.0 0.00 0.01 0.01 87 1017.6
20260901000506 64 206 0.0 0.0 0.00 0.01 0.01 86 1017.6
20260901000428 64 206 0.0 0.0 0.00 0.01 0.01 86 1017.6
20260901000235 64 206 0.0 0.0 0.00 0.01 0.01 86 1017.6
20260901000138 64 206 0.0 0.0 0.00 0.01 0.01 86 1017.6
20260901000044 64 206 0.0 0.0 0.00 0.01 0.01 86 1017.6
20260831235942 64 206 0.0 0.0 0.00 0.01 0.01 86 1017.6
20260831235813 64 206 0.0 0.0 0.00 0.01 0.01 86 1017.5
20260831235727 64 206 0.0 0.0 0.00 0.01 0.01 86 1017.5
20260831235556 65 206 0.0 0.0 0.00 0.01 0.01 85 1017.5
20260831235519 65 206 0.0 0.0 0.00 0.01 0.01 85 1017.6
20260831235324 65 206 0.0 0.0 0.00 0.01 0.01 85 1017.5
20260831235228 65 206 0.0 0.0 0.00 0.01 0.01 85 1017.5
20260831235132 65 206 0.0 0.0 0.00 0.01 0.01 85 1017.5
20260831235053 65 206 0.0 0.0 0.00 0.01 0.01 85 1017.5
20260831235014 65 206 0.0 1.0 0.00 0.01 0.01 85 1017.6
20260831234919 65 206 0.0 2.0 0.00 0.01 0.01 84 1017.5
20260831234840 65 206 0.0 2.0 0.00 0.01 0.01 84 1017.5
20260831234649 65 206 0.0 2.0 0.00 0.01 0.01 84 1017.5
20260831234524 65 206 0.0 2.0 0.00 0.01 0.01 84 1017.5
20260831234427 65 206 0.0 2.0 0.00 0.01 0.01 84 1017.5
20260831234327 65 206 0.0 2.0 0.00 0.01 0.01 84 1017.5
20260831234136 66 206 1.0 2.0 0.00 0.01 0.01 83 1017.4
20260831234042 66 206 1.0 2.0 0.00 0.01 0.01 84 1017.4
20260831233825 66 206 0.0 1.0 0.00 0.01 0.01 84 1017.4
20260831233746 66 206 0.0 1.0 0.00 0.01 0.01 85 1017.4
20260831233629 66 206 0.0 0.0 0.00 0.01 0.01 84 1017.5
20260831233551 66 206 0.0 0.0 0.00 0.01 0.01 84 1017.4
20260831233412 67 206 0.0 0.0 0.00 0.01 0.01 84 1017.5
20260831233345 67 206 0.0 0.0 0.00 0.01 0.01 84 1017.4
20260831233129 67 206 0.0 0.0 0.00 0.01 0.01 84 1017.4
20260831233051 67 206 0.0 0.0 0.00 0.01 0.01 84 1017.4
20260831232957 67 206 0.0 0.0 0.00 0.01 0.01 84 1017.4
20260831232920 67 206 0.0 0.0 0.00 0.01 0.01 84 1017.4
20260831232730 67 206 0.0 0.0 0.00 0.01 0.01 83 1017.4
20260831232624 67 206 0.0 0.0 0.00 0.01 0.01 83 1017.3
20260831232546 67 206 0.0 0.0 0.00 0.01 0.01 83 1017.3
20260831232450 68 206 0.0 0.0 0.00 0.01 0.01 83 1017.3
20260831232412 68 206 0.0 0.0 0.00 0.01 0.01 83 1017.3
20260831232226 68 206 0.0 0.0 0.00 0.01 0.01 82 1017.4
20260831232129 68 206 0.0 0.0 0.00 0.01 0.01 82 1017.4
20260831232036 68 206 0.0 0.0 0.00 0.01 0.01 82 1017.3
20260831231936 68 206 0.0 0.0 0.00 0.01 0.01 82 1017.3
20260831231806 68 206 0.0 0.0 0.00 0.01 0.01 82 1017.3
20260831231720 69 206 0.0 0.0 0.00 0.01 0.01 82 1017.4
20260831231551 69 206 0.0 0.0 0.00 0.01 0.01 82 1017.4
20260831231512 69 206 0.0 0.0 0.00 0.01 0.01 82 1017.4
20260831231343 69 206 0.0 0.0 0.00 0.01 0.01 81 1017.4
20260831231234 69 206 0.0 0.0 0.00 0.01 0.01 81 1017.4
20260831231103 69 206 0.0 0.0 0.00 0.01 0.01 81 1017.4
20260831231026 69 206 0.0 0.0 0.00 0.01 0.01 81 1017.4
20260831230828 69 206 0.0 0.0 0.00 0.01 0.01 81 1017.4
20260831230748 70 206 0.0 0.0 0.00 0.01 0.01 81 1017.4
20260831230655 70 206 0.0 0.0 0.00 0.01 0.01 80 1017.4
20260831230555 70 206 0.0 0.0 0.00 0.01 0.01 80 1017.4
20260831230404 70 206 0.0 0.0 0.00 0.01 0.01 80 1017.5
20260831230319 70 206 0.0 0.0 0.00 0.01 0.01 79 1017.4
20260831230129 70 206 0.0 0.0 0.00 0.01 0.01 79 1017.4
20260831230046 70 206 0.0 0.0 0.00 0.01 0.01 79 1017.5
20260831225915 70 206 0.0 0.0 0.00 0.02 0.01 79 1017.5
20260831225837 70 206 0.0 0.0 0.00 0.02 0.01 79 1017.5
20260831225641 70 206 0.0 0.0 0.00 0.02 0.01 78 1017.5
20260831225543 71 206 0.0 0.0 0.00 0.02 0.01 79 1017.6
20260831225459 71 206 0.0 0.0 0.00 0.02 0.01 80 1017.5
20260831225229 71 206 0.0 0.0 0.00 0.02 0.01 78 1017.5
20260831225123 71 206 0.0 0.0 0.00 0.02 0.01 78 1017.5
20260831224932 71 206 0.0 0.0 0.00 0.02 0.01 77 1017.5
20260831224849 71 206 0.0 0.0 0.00 0.02 0.01 77 1017.6
20260831224717 71 206 0.0 0.0 0.00 0.02 0.01 77 1017.5
20260831224640 71 206 0.0 0.0 0.00 0.02 0.01 77 1017.5
20260831224503 71 206 0.0 0.0 0.00 0.02 0.01 76 1017.5
20260831224425 71 206 0.0 0.0 0.00 0.02 0.01 76 1017.5
20260831224235 71 206 0.0 0.0 0.00 0.02 0.01 77 1017.5
20260831224131 72 206 0.0 0.0 0.00 0.02 0.01 77 1017.5
20260831224053 72 206 0.0 0.0 0.00 0.02 0.01 77 1017.5
20260831223956 72 206 0.0 0.0 0.00 0.02 0.01 76 1017.5
20260831223857 72 206 0.0 0.0 0.00 0.02 0.01 75 1017.5
20260831223818 72 206 0.0 0.0 0.00 0.02 0.01 75 1017.5
20260831223710 72 206 0.0 0.0 0.00 0.02 0.01 75 1017.5
20260831223643 72 206 0.0 0.0 0.00 0.02 0.01 74 1017.5
20260831223425 72 206 0.0 0.0 0.00 0.02 0.01 74 1017.5
20260831223326 72 206 0.0 0.0 0.00 0.02 0.01 75 1017.5
20260831223230 72 206 0.0 0.0 0.00 0.02 0.01 75 1017.5
20260831223136 72 206 0.0 0.0 0.00 0.02 0.01 74 1017.5
20260831223057 72 206 0.0 0.0 0.00 0.02 0.01 73 1017.6
20260831222959 72 206 0.0 0.0 0.00 0.02 0.01 74 1017.5
20260831222922 72 206 0.0 0.0 0.00 0.02 0.01 74 1017.6
20260831222725 72 206 0.0 0.0 0.00 0.02 0.01 74 1017.6
20260831222627 72 206 0.0 0.0 0.00 0.02 0.01 73 1017.6
20260831222532 72 206 0.0 0.0 0.00 0.02 0.01 73 1017.6
20260831222454 72 206 0.0 0.0 0.00 0.02 0.01 71 1017.6
20260831222306 72 206 0.0 0.0 0.00 0.02 0.01 72 1017.6
20260831222218 73 206 0.0 0.0 0.00 0.02 0.01 72 1017.6
20260831222031 73 206 0.0 0.0 0.00 0.02 0.01 71 1017.6
20260831221952 73 206 0.0 0.0 0.00 0.02 0.01 70 1017.6
20260831221835 73 206 0.0 0.0 0.00 0.02 0.01 70 1017.6
20260831221756 73 206 0.0 0.0 0.00 0.02 0.01 70 1017.6
20260831221538 73 206 0.0 0.0 0.00 0.02 0.01 71 1017.6
20260831221440 73 206 0.0 0.0 0.00 0.02 0.01 70 1017.7
20260831221322 73 206 0.0 0.0 0.00 0.02 0.01 68 1017.7
20260831221244 73 206 0.0 0.0 0.00 0.02 0.01 68 1017.7
20260831221142 74 206 0.0 0.0 0.00 0.02 0.01 69 1017.7
20260831221026 74 206 0.0 0.0 0.00 0.02 0.01 68 1017.7
20260831220928 74 206 0.0 0.0 0.00 0.02 0.01 69 1017.6
20260831220823 74 206 0.0 0.0 0.00 0.02 0.01 68 1017.7
20260831220727 74 206 0.0 0.0 0.00 0.02 0.01 67 1017.7
20260831220629 74 206 0.0 0.0 0.00 0.02 0.01 67 1017.7
20260831220532 74 206 0.0 0.0 0.00 0.02 0.01 67 1017.7
20260831220454 74 206 0.0 0.0 0.00 0.02 0.01 67 1017.8
20260831220419 74 206 0.0 0.0 0.00 0.02 0.01 67 1017.8
20260831220321 74 206 0.0 0.0 0.00 0.02 0.01 68 1017.8
20260831220242 74 206 0.0 0.0 0.00 0.02 0.01 68 1017.8
20260831220112 74 206 0.0 0.0 0.00 0.02 0.01 66 1017.8
20260831220028 75 206 0.0 0.0 0.00 0.02 0.01 67 1017.8
20260831215857 75 206 0.0 0.0 0.00 0.02 0.01 63 1017.7
20260831215819 75 206 0.0 0.0 0.00 0.02 0.01 63 1017.7
20260831215650 75 206 0.0 1.0 0.00 0.02 0.01 66 1017.7
20260831215604 75 206 0.0 2.0 0.00 0.02 0.01 66 1017.6
20260831215412 76 206 0.0 3.0 0.00 0.02 0.01 65 1017.6
20260831215332 76 206 0.0 3.0 0.00 0.02 0.01 63 1017.6
20260831215214 76 206 0.0 3.0 0.00 0.02 0.01 62 1017.5
20260831215137 76 206 0.0 4.0 0.00 0.02 0.01 62 1017.5
20260831215009 77 206 0.0 4.0 0.00 0.02 0.01 61 1017.5
20260831214925 77 206 0.0 4.0 0.00 0.02 0.01 61 1017.5
20260831214734 77 206 1.0 4.0 0.00 0.02 0.01 60 1017.5
20260831214648 77 206 2.0 4.0 0.00 0.02 0.01 61 1017.6
20260831214547 77 219 2.0 4.0 0.00 0.02 0.01 60 1017.6
20260831214447 77 190 2.0 4.0 0.00 0.02 0.01 55 1017.6
20260831214348 77 179 2.0 4.0 0.00 0.02 0.01 55 1017.6
20260831214229 77 213 1.0 4.0 0.00 0.02 0.01 57 1017.6
20260831214152 77 171 1.0 4.0 0.00 0.02 0.01 57 1017.6
20260831213933 78 191 3.0 4.0 0.00 0.02 0.01 55 1017.7
20260831213856 78 182 3.0 4.0 0.00 0.02 0.01 55 1017.7
20260831213800 78 207 3.0 4.0 0.00 0.02 0.01 55 1017.7
20260831213720 78 184 2.0 4.0 0.00 0.02 0.01 55 1017.7
20260831213548 78 234 0.0 2.0 0.00 0.02 0.01 63 1017.7
20260831213423 78 300 0.0 2.0 0.00 0.02 0.01 64 1017.7
20260831213326 78 300 0.0 2.0 0.00 0.02 0.01 64 1017.7
20260831213227 78 300 0.0 2.0 0.00 0.02 0.01 63 1017.7
20260831213031 78 300 1.0 2.0 0.00 0.02 0.01 59 1017.7
20260831212933 78 300 2.0 2.0 0.00 0.02 0.01 61 1017.7
20260831212829 78 300 2.0 2.0 0.00 0.02 0.01 60 1017.7
20260831212751 78 300 2.0 2.0 0.00 0.02 0.01 62 1017.7
20260831212532 78 242 1.0 2.0 0.00 0.02 0.01 58 1017.6
20260831212454 78 225 1.0 2.0 0.00 0.02 0.01 58 1017.7
20260831212356 78 174 0.0 0.0 0.00 0.02 0.01 59 1017.7
20260831212236 78 174 0.0 0.0 0.00 0.02 0.01 56 1017.6
20260831212157 78 174 0.0 0.0 0.00 0.02 0.01 60 1017.6
20260831212059 78 174 0.0 0.0 0.00 0.02 0.01 60 1017.6
20260831212022 78 174 0.0 0.0 0.00 0.02 0.01 56 1017.7
20260831211828 78 174 0.0 2.0 0.00 0.02 0.01 57 1017.7
20260831211729 78 174 0.0 3.0 0.00 0.02 0.01 57 1017.7
20260831211632 78 174 0.0 3.0 0.00 0.02 0.01 56 1017.7
20260831211554 78 174 0.0 3.0 0.00 0.02 0.01 57 1017.8
20260831211338 78 174 0.0 3.0 0.00 0.02 0.01 57 1017.8
20260831211239 78 174 0.0 3.0 0.00 0.02 0.01 56 1017.8
20260831211142 78 174 1.0 3.0 0.00 0.02 0.01 55 1017.8
20260831211043 78 174 1.0 3.0 0.00 0.02 0.01 55 1017.9
20260831210942 79 174 2.0 3.0 0.00 0.02 0.01 53 1017.9
20260831210836 79 174 2.0 3.0 0.00 0.02 0.01 53 1017.9
20260831210737 79 174 2.0 3.0 0.00 0.02 0.01 53 1017.9
20260831210640 79 150 1.0 5.0 0.00 0.02 0.01 54 1017.9
20260831210540 79 182 1.0 5.0 0.00 0.02 0.01 56 1017.9
20260831210410 79 182 0.0 5.0 0.00 0.02 0.01 57 1017.9
20260831210324 79 182 0.0 5.0 0.00 0.02 0.01 56 1017.9
20260831210155 79 182 0.0 5.0 0.00 0.02 0.01 57 1017.9
20260831210117 79 182 0.0 5.0 0.00 0.02 0.01 57 1017.9
20260831205948 79 182 2.0 5.0 0.00 0.02 0.01 52 1018.0
20260831205840 79 182 3.0 5.0 0.00 0.02 0.01 54 1017.9
20260831205713 79 125 2.0 4.0 0.00 0.02 0.01 52 1017.9
20260831205636 79 144 2.0 4.0 0.00 0.02 0.01 53 1017.9
20260831205459 79 150 2.0 4.0 0.00 0.02 0.01 53 1017.9
20260831205421 79 124 1.0 4.0 0.00 0.02 0.01 54 1017.9
20260831205231 79 209 1.0 2.0 0.00 0.02 0.01 51 1018.0
20260831205146 79 209 1.0 3.0 0.00 0.02 0.01 51 1018.0
20260831205016 79 132 0.0 3.0 0.00 0.02 0.01 51 1017.9
20260831204938 79 132 0.0 3.0 0.00 0.02 0.01 51 1017.9
20260831204740 79 132 0.0 3.0 0.00 0.02 0.01 55 1017.9
20260831204700 79 132 0.0 3.0 0.00 0.02 0.01 52 1017.9
20260831204528 79 132 1.0 3.0 0.00 0.02 0.01 54 1017.9
20260831204443 79 132 1.0 3.0 0.00 0.02 0.01 54 1017.9
20260831204313 79 134 1.0 2.0 0.00 0.02 0.01 55 1017.8
20260831204236 79 152 1.0 2.0 0.00 0.02 0.01 54 1017.8
20260831204038 79 94 1.0 2.0 0.00 0.02 0.01 53 1017.9
20260831204000 79 94 1.0 2.0 0.00 0.02 0.01 51 1017.8
20260831203902 79 86 0.0 2.0 0.00 0.02 0.01 52 1017.8
20260831203824 79 86 0.0 1.0 0.00 0.02 0.01 52 1017.8
20260831203635 78 86 0.0 2.0 0.00 0.02 0.01 54 1017.8
20260831203514 78 86 0.0 2.0 0.00 0.02 0.01 53 1017.8
20260831203425 78 86 0.0 2.0 0.00 0.02 0.01 53 1017.8
20260831203348 78 86 0.0 2.0 0.00 0.02 0.01 53 1017.8
20260831203217 78 60 0.0 3.0 0.00 0.02 0.01 51 1017.8
20260831203134 78 60 0.0 3.0 0.00 0.02 0.01 51 1017.8
20260831202944 78 60 0.0 3.0 0.00 0.02 0.01 53 1017.9
20260831202859 78 60 1.0 3.0 0.00 0.02 0.01 51 1017.9
20260831202730 78 60 1.0 3.0 0.00 0.02 0.01 51 1017.9
20260831202631 78 76 1.0 3.0 0.00 0.02 0.01 51 1017.9
20260831202435 78 182 2.0 3.0 0.00 0.02 0.01 54 1017.9
20260831202341 78 212 2.0 3.0 0.00 0.02 0.01 56 1017.9
20260831202243 78 101 2.0 3.0 0.00 0.02 0.01 53 1017.9
20260831202205 78 103 2.0 3.0 0.00 0.02 0.01 53 1017.8
20260831202046 78 113 1.0 4.0 0.00 0.02 0.01 53 1017.8
20260831201940 78 154 0.0 4.0 0.00 0.02 0.01 51 1017.9
20260831201758 78 154 1.0 4.0 0.00 0.02 0.01 52 1017.8
20260831201658 78 154 2.0 5.0 0.00 0.02 0.01 53 1017.9
20260831201601 78 160 1.0 5.0 0.00 0.02 0.01 51 1017.9
20260831201523 78 169 2.0 5.0 0.00 0.02 0.01 55 1017.9
20260831201352 78 165 2.0 5.0 0.00 0.02 0.01 53 1018.0
20260831201306 78 194 2.0 6.0 0.00 0.02 0.01 57 1017.9
20260831201116 78 190 2.0 6.0 0.00 0.02 0.01 54 1018.0
20260831201042 78 175 2.0 6.0 0.00 0.02 0.01 54 1018.0
20260831200912 78 171 3.0 6.0 0.00 0.02 0.01 52 1017.9
20260831200827 78 187 3.0 6.0 0.00 0.02 0.01 51 1017.9
20260831200657 79 151 4.0 6.0 0.00 0.02 0.01 51 1017.9
20260831200619 79 174 4.0 6.0 0.00 0.02 0.01 51 1017.9
20260831200423 79 150 2.0 5.0 0.00 0.02 0.01 52 1017.9
20260831200344 79 213 2.0 4.0 0.00 0.02 0.01 52 1017.9
20260831200248 79 211 1.0 5.0 0.00 0.02 0.01 52 1018.0
20260831200129 79 278 1.0 5.0 0.00 0.02 0.01 53 1018.0
20260831200031 79 298 2.0 5.0 0.00 0.02 0.01 51 1018.0
20260831195936 79 313 2.0 5.0 0.00 0.02 0.01 53 1018.0
20260831195858 79 269 2.0 5.0 0.00 0.03 0.01 54 1018.1
20260831195800 79 308 2.0 5.0 0.00 0.03 0.01 52 1018.1
20260831195732 79 282 3.0 5.0 0.00 0.03 0.01 51 1018.1
20260831195602 79 271 2.0 5.0 0.00 0.03 0.01 54 1018.2
20260831195518 79 243 3.0 5.0 0.00 0.03 0.01 52 1018.2
20260831195328 79 267 2.0 5.0 0.00 0.03 0.01 52 1018.2
20260831195242 79 286 1.0 5.0 0.00 0.03 0.01 54 1018.3
20260831195142 79 198 1.0 5.0 0.00 0.03 0.01 52 1018.3
20260831195057 79 209 2.0 5.0 0.00 0.03 0.01 53 1018.4
20260831194958 79 209 3.0 5.0 0.00 0.03 0.01 52 1018.4
20260831194832 79 222 1.0 4.0 0.00 0.03 0.01 52 1018.4
20260831194725 79 226 2.0 4.0 0.00 0.03 0.01 52 1018.4
20260831194556 78 226 2.0 4.0 0.00 0.03 0.01 53 1018.5
20260831194518 78 177 1.0 4.0 0.00 0.03 0.01 52 1018.5
20260831194438 78 272 0.0 4.0 0.00 0.03 0.01 53 1018.5
20260831194320 78 272 1.0 4.0 0.00 0.03 0.01 52 1018.5
20260831194241 78 272 1.0 4.0 0.00 0.03 0.01 52 1018.5
20260831194110 78 31 1.0 4.0 0.00 0.03 0.01 51 1018.5
20260831194026 78 234 1.0 4.0 0.00 0.03 0.01 51 1018.5
20260831193856 78 234 2.0 4.0 0.00 0.03 0.01 51 1018.5
20260831193816 79 234 3.0 4.0 0.00 0.03 0.01 50 1018.6
20260831193658 79 239 3.0 4.0 0.00 0.03 0.01 54 1018.6
20260831193621 79 219 2.0 4.0 0.00 0.03 0.01 55 1018.6
20260831193436 79 304 1.0 3.0 0.00 0.03 0.01 53 1018.6
20260831193330 79 260 2.0 3.0 0.00 0.03 0.01 52 1018.7
20260831193251 78 252 1.0 3.0 0.00 0.03 0.01 52 1018.7
20260831193153 78 255 1.0 3.0 0.00 0.03 0.01 55 1018.7
20260831193052 78 167 0.0 3.0 0.00 0.03 0.01 53 1018.7
20260831193013 78 167 1.0 4.0 0.00 0.03 0.01 55 1018.6
20260831192855 78 109 1.0 4.0 0.00 0.03 0.01 58 1018.7
20260831192817 78 146 1.0 4.0 0.00 0.03 0.01 55 1018.7
20260831192647 78 146 1.0 4.0 0.00 0.03 0.01 55 1018.7
20260831192526 78 220 2.0 4.0 0.00 0.03 0.01 54 1018.7
20260831192430 78 220 2.0 4.0 0.00 0.03 0.01 55 1018.7
20260831192401 77 220 2.0 4.0 0.00 0.03 0.01 53 1018.7
20260831192224 77 217 2.0 4.0 0.00 0.03 0.01 54 1018.7
20260831192145 77 209 2.0 4.0 0.00 0.03 0.01 58 1018.8
20260831192014 77 101 1.0 3.0 0.00 0.03 0.01 55 1018.8
20260831191930 77 113 1.0 3.0 0.00 0.03 0.01 55 1018.8
20260831191759 77 113 1.0 3.0 0.00 0.03 0.01 56 1018.9
20260831191721 77 113 1.0 3.0 0.00 0.03 0.01 55 1018.9
20260831191549 77 113 0.0 3.0 0.00 0.03 0.01 58 1018.9
20260831191443 77 188 0.0 1.0 0.00 0.03 0.01 56 1018.9
20260831191408 76 188 0.0 1.0 0.00 0.03 0.01 57 1018.9
20260831191313 76 188 0.0 1.0 0.00 0.03 0.01 57 1018.9
20260831191234 76 188 0.0 1.0 0.00 0.03 0.01 57 1018.9
20260831191104 76 188 0.0 2.0 0.00 0.03 0.01 58 1018.9
20260831191020 76 188 0.0 2.0 0.00 0.03 0.01 55 1019.0
20260831190830 77 188 0.0 4.0 0.00 0.03 0.01 58 1019.0
20260831190723 77 188 0.0 4.0 0.00 0.03 0.01 57 1019.0
20260831190645 77 188 0.0 4.0 0.00 0.03 0.01 55 1019.0
20260831190600 77 188 0.0 4.0 0.00 0.03 0.01 59 1019.0
20260831190521 77 188 0.0 4.0 0.00 0.03 0.01 55 1019.0
20260831190351 77 188 1.0 4.0 0.00 0.03 0.01 55 1019.0
20260831190317 77 188 1.0 4.0 0.00 0.03 0.01 55 1019.0
20260831190141 77 188 3.0 4.0 0.00 0.03 0.01 55 1018.9
20260831190042 77 193 4.0 4.0 0.00 0.03 0.01 53 1018.9
20260831185947 78 150 3.0 5.0 0.00 0.03 0.01 56 1018.9
20260831185847 78 163 2.0 5.0 0.00 0.03 0.01 54 1018.9
20260831185716 78 189 1.0 5.0 0.00 0.03 0.01 54 1018.9
20260831185631 78 122 1.0 5.0 0.00 0.03 0.01 55 1018.9
20260831185502 78 155 2.0 5.0 0.00 0.03 0.01 55 1018.9
20260831185424 78 175 1.0 5.0 0.00 0.03 0.01 53 1018.9
20260831185254 78 181 1.0 5.0 0.00 0.03 0.01 55 1018.9
20260831185207 78 156 2.0 5.0 0.00 0.03 0.01 55 1018.9
20260831185015 78 123 2.0 6.0 0.00 0.03 0.01 56 1018.9
20260831184942 78 185 3.0 6.0 0.00 0.03 0.01 53 1018.9
20260831184724 78 155 2.0 5.0 0.00 0.03 0.01 55 1018.9
20260831184625 78 146 3.0 5.0 0.00 0.03 0.01 54 1018.9
20260831184540 78 144 2.0 5.0 0.00 0.03 0.01 54 1018.9
20260831184440 78 151 1.0 5.0 0.00 0.03 0.01 57 1018.9
20260831184344 78 326 1.0 8.0 0.00 0.03 0.01 55 1018.9
20260831184306 78 322 2.0 8.0 0.00 0.03 0.01 53 1018.9
20260831184135 78 355 2.0 8.0 0.00 0.03 0.01 57 1019.0
20260831184029 78 340 3.0 8.0 0.00 0.03 0.01 54 1019.0
20260831183858 78 360 3.0 8.0 0.00 0.03 0.01 58 1019.0
20260831183821 78 355 2.0 8.0 0.00 0.03 0.01 58 1019.0
20260831183627 78 360 2.0 8.0 0.00 0.03 0.01 57 1019.0
20260831183528 77 13 2.0 8.0 0.00 0.03 0.01 55 1019.0
20260831183441 77 26 1.0 4.0 0.00 0.03 0.01 59 1019.0
20260831183402 77 335 1.0 4.0 0.00 0.03 0.01 56 1018.9
20260831183226 77 157 1.0 4.0 0.00 0.03 0.01 57 1019.0
20260831183148 77 163 1.0 5.0 0.00 0.03 0.01 55 1019.0
20260831183018 77 146 2.0 5.0 0.00 0.03 0.01 53 1019.0
20260831182933 77 146 3.0 5.0 0.00 0.03 0.01 54 1019.0
20260831182752 77 196 1.0 7.0 0.00 0.03 0.01 53 1019.0
20260831182651 77 283 1.0 7.0 0.00 0.03 0.01 52 1019.0
20260831182541 77 245 1.0 9.0 0.00 0.03 0.01 55 1019.0
20260831182503 77 244 2.0 9.0 0.00 0.03 0.01 54 1019.0
20260831182306 77 194 3.0 9.0 0.00 0.03 0.01 56 1019.1
20260831182227 77 167 3.0 9.0 0.00 0.03 0.01 56 1019.1
20260831182038 77 123 4.0 9.0 0.00 0.03 0.01 55 1019.1
20260831181931 78 167 2.0 9.0 0.00 0.03 0.01 53 1019.1
20260831181833 78 286 4.0 9.0 0.00 0.03 0.01 52 1019.1
20260831181733 78 292 4.0 9.0 0.00 0.03 0.01 54 1019.1
20260831181544 77 334 2.0 5.0 0.00 0.03 0.01 52 1019.2
20260831181441 77 281 2.0 5.0 0.00 0.03 0.01 51 1019.2
20260831181328 77 281 2.0 5.0 0.00 0.03 0.01 51 1019.2
20260831181250 77 251 3.0 5.0 0.00 0.03 0.01 51 1019.2
20260831181121 77 217 1.0 5.0 0.00 0.03 0.01 52 1019.2
20260831181036 77 150 0.0 8.0 0.00 0.03 0.01 54 1019.2
20260831180905 77 136 2.0 8.0 0.00 0.03 0.01 52 1019.3
20260831180827 77 136 2.0 8.0 0.00 0.03 0.01 52 1019.3
20260831180631 77 332 2.0 8.0 0.00 0.03 0.01 54 1019.3
20260831180526 77 355 3.0 8.0 0.00 0.03 0.01 54 1019.3
20260831180450 77 346 3.0 8.0 0.00 0.03 0.01 52 1019.4
20260831180350 77 342 4.0 8.0 0.00 0.03 0.01 55 1019.5
20260831180312 77 301 5.0 8.0 0.00 0.03 0.01 54 1019.5
20260831180154 77 343 4.0 8.0 0.00 0.03 0.01 54 1019.5
20260831180117 77 323 2.0 6.0 0.00 0.03 0.01 52 1019.5
20260831175947 77 271 2.0 5.0 0.00 0.03 0.01 57 1019.5
20260831175823 77 334 3.0 8.0 0.00 0.03 0.01 57 1019.5
20260831175726 77 340 3.0 8.0 0.00 0.03 0.01 53 1019.5
20260831175648 77 327 4.0 8.0 0.00 0.03 0.01 55 1019.5
20260831175621 77 342 3.0 8.0 0.00 0.03 0.01 54 1019.5
20260831175427 77 319 3.0 10.0 0.00 0.03 0.01 54 1019.5
20260831175350 77 275 3.0 10.0 0.00 0.03 0.01 54 1019.5
20260831175232 77 215 4.0 10.0 0.00 0.03 0.01 53 1019.5
20260831175153 77 328 4.0 10.0 0.00 0.03 0.01 52 1019.6
20260831175116 77 22 4.0 10.0 0.00 0.03 0.01 54 1019.6
20260831175020 77 256 3.0 10.0 0.00 0.03 0.01 55 1019.6
20260831174943 77 290 3.0 10.0 0.00 0.03 0.01 55 1019.6
20260831174812 76 218 3.0 10.0 0.00 0.03 0.01 52 1019.5
20260831174728 76 251 5.0 10.0 0.00 0.03 0.01 55 1019.5
20260831174558 76 325 4.0 10.0 0.00 0.03 0.01 56 1019.5
20260831174456 76 331 3.0 6.0 0.00 0.03 0.01 54 1019.5
20260831174359 76 315 2.0 6.0 0.00 0.03 0.01 58 1019.6
20260831174244 76 155 1.0 6.0 0.00 0.03 0.01 60 1019.6
20260831174127 76 157 2.0 6.0 0.00 0.03 0.01 59 1019.5
20260831174047 76 125 2.0 6.0 0.00 0.03 0.01 58 1019.6
20260831173931 76 74 2.0 6.0 0.00 0.03 0.01 59 1019.6
20260831173833 76 133 3.0 7.0 0.00 0.03 0.01 58 1019.6
20260831173754 76 136 3.0 7.0 0.00 0.03 0.01 57 1019.6
20260831173657 76 150 3.0 7.0 0.00 0.03 0.01 56 1019.6
20260831173620 76 144 3.0 7.0 0.00 0.03 0.01 53 1019.6
20260831173449 76 173 1.0 7.0 0.00 0.03 0.01 56 1019.6
20260831173327 76 133 1.0 7.0 0.00 0.03 0.01 56 1019.6
20260831173230 76 133 2.0 7.0 0.00 0.03 0.01 59 1019.6
20260831173151 76 133 3.0 7.0 0.00 0.03 0.01 59 1019.7
20260831173112 76 134 4.0 7.0 0.00 0.03 0.01 59 1019.6
20260831173016 76 135 5.0 7.0 0.00 0.03 0.01 62 1019.7
20260831172937 76 129 5.0 7.0 0.00 0.03 0.01 61 1019.7
20260831172808 76 226 4.0 7.0 0.00 0.03 0.01 59 1019.6
20260831172722 76 225 4.0 6.0 0.00 0.03 0.01 59 1019.6
20260831172533 76 224 1.0 5.0 0.00 0.03 0.01 63 1019.7
20260831172448 76 329 0.0 5.0 0.00 0.03 0.01 64 1019.7
20260831172256 76 328 2.0 7.0 0.00 0.03 0.01 62 1019.7
20260831172201 76 328 3.0 7.0 0.00 0.03 0.01 63 1019.7
20260831172030 75 306 2.0 7.0 0.00 0.03 0.01 63 1019.7
20260831171925 75 325 1.0 7.0 0.00 0.03 0.01 63 1019.7
20260831171734 75 304 3.0 7.0 0.00 0.03 0.01 64 1019.6
20260831171650 75 299 2.0 7.0 0.00 0.03 0.01 63 1019.7
20260831171519 75 126 4.0 7.0 0.00 0.03 0.01 63 1019.7
20260831171420 75 148 5.0 8.0 0.00 0.03 0.01 63 1019.7
20260831171223 75 168 2.0 7.0 0.00 0.03 0.01 63 1019.7
20260831171144 75 183 3.0 7.0 0.00 0.03 0.01 61 1019.7
20260831171028 75 123 4.0 7.0 0.00 0.03 0.01 62 1019.6
20260831170953 75 146 3.0 6.0 0.00 0.03 0.01 64 1019.7
20260831170802 75 139 3.0 6.0 0.00 0.03 0.01 63 1019.7
20260831170716 75 153 3.0 6.0 0.00 0.03 0.01 63 1019.7
20260831170525 74 169 2.0 5.0 0.00 0.03 0.01 64 1019.7
20260831170419 74 159 1.0 5.0 0.00 0.03 0.01 63 1019.7
20260831170351 74 183 2.0 5.0 0.00 0.03 0.01 63 1019.8
20260831170255 74 174 3.0 5.0 0.00 0.03 0.01 63 1019.8
20260831170216 74 188 2.0 5.0 0.00 0.03 0.01 64 1019.8
20260831170046 74 248 2.0 4.0 0.00 0.03 0.01 64 1019.8
20260831165925 74 232 2.0 4.0 0.00 0.03 0.01 66 1019.8
20260831165830 74 219 2.0 7.0 0.00 0.03 0.01 67 1019.8
20260831165731 74 145 2.0 7.0 0.00 0.03 0.01 67 1019.8
20260831165542 73 254 2.0 7.0 0.00 0.03 0.01 66 1019.8
20260831165435 73 178 2.0 7.0 0.00 0.03 0.01 65 1019.8
20260831165357 73 272 2.0 7.0 0.00 0.03 0.01 67 1019.8
20260831165301 73 178 1.0 7.0 0.00 0.03 0.01 67 1019.8
20260831165223 73 159 2.0 7.0 0.00 0.03 0.01 67 1019.8
20260831165054 73 146 5.0 7.0 0.00 0.03 0.01 67 1019.8
20260831165009 73 161 5.0 8.0 0.00 0.03 0.01 68 1019.9
20260831164840 72 298 3.0 6.0 0.00 0.03 0.01 69 1019.9
20260831164744 72 257 2.0 6.0 0.00 0.03 0.01 69 1019.9
20260831164610 72 327 3.0 6.0 0.00 0.03 0.01 69 1019.9
20260831164524 72 315 3.0 6.0 0.00 0.03 0.01 68 1019.9
20260831164334 72 242 3.0 8.0 0.00 0.03 0.01 69 1020.0
20260831164248 72 176 2.0 8.0 0.00 0.03 0.01 69 1019.9
20260831164117 72 277 2.0 8.0 0.00 0.03 0.01 70 1020.0
20260831164040 72 277 2.0 8.0 0.00 0.03 0.01 69 1020.0
20260831163842 72 334 1.0 8.0 0.00 0.03 0.01 70 1019.9
20260831163803 72 308 1.0 8.0 0.00 0.03 0.01 70 1019.9
20260831163706 72 227 3.0 8.0 0.00 0.03 0.01 69 1020.0
20260831163629 73 218 4.0 8.0 0.00 0.03 0.01 69 1020.0
20260831163501 73 212 4.0 8.0 0.00 0.03 0.01 68 1020.0
20260831163416 73 187 3.0 7.0 0.00 0.03 0.01 67 1020.0
20260831163225 73 254 2.0 7.0 0.00 0.03 0.01 69 1020.0
20260831163141 73 224 2.0 7.0 0.00 0.03 0.01 69 1020.0
20260831163009 73 219 4.0 7.0 0.00 0.03 0.01 67 1020.1
20260831162932 73 200 3.0 7.0 0.00 0.03 0.01 66 1020.1
20260831162754 73 176 2.0 6.0 0.00 0.03 0.01 67 1020.1
20260831162716 73 176 3.0 6.0 0.00 0.03 0.01 65 1020.1
20260831162526 73 173 2.0 5.0 0.00 0.03 0.01 69 1020.1
20260831162440 73 217 2.0 5.0 0.00 0.03 0.01 68 1020.1
20260831162308 73 154 3.0 6.0 0.00 0.03 0.01 69 1020.1
20260831162234 73 159 3.0 6.0 0.00 0.03 0.01 69 1020.1
20260831162037 73 310 3.0 6.0 0.00 0.03 0.01 69 1020.2
20260831161958 73 325 2.0 6.0 0.00 0.03 0.01 69 1020.2
20260831161841 73 236 2.0 6.0 0.00 0.03 0.01 67 1020.2